GEFSSE_prec_meanprecacc_144.txt.gz
Total_Precipitation_Accumulation
0.06 0.03 0.04 0.04 0.03 0.03 0.02 0.04 0.07 0.11 0.13 0.14 0.16 0.16 0.16 0.14 0.13 0.13 0.12 0.11 0.13 0.17 0.22 0.28 0.31 0.36 0.40 0.38 0.28 0.18 0.14 0.12 0.10 0.08 0.08 0.10 0.12 0.14 0.18 0.16 0.15 0.11 0.09
0.05 0.02 0.04 0.04 0.05 0.05 0.03 0.04 0.06 0.09 0.11 0.12 0.12 0.12 0.12 0.13 0.12 0.13 0.13 0.15 0.17 0.22 0.22 0.24 0.28 0.31 0.32 0.27 0.20 0.13 0.10 0.09 0.12 0.15 0.20 0.25 0.30 0.27 0.30 0.26 0.23 0.18 0.08
0.05 0.03 0.03 0.04 0.05 0.07 0.06 0.05 0.06 0.09 0.13 0.14 0.14 0.12 0.11 0.10 0.10 0.11 0.12 0.15 0.22 0.26 0.26 0.23 0.23 0.23 0.23 0.18 0.13 0.09 0.09 0.11 0.16 0.25 0.44 0.55 0.54 0.47 0.44 0.38 0.35 0.22 0.11
0.06 0.05 0.04 0.04 0.05 0.07 0.07 0.08 0.08 0.11 0.14 0.18 0.19 0.18 0.15 0.12 0.11 0.13 0.13 0.15 0.21 0.25 0.22 0.19 0.16 0.15 0.13 0.10 0.08 0.07 0.09 0.14 0.23 0.35 0.67 0.64 0.57 0.50 0.42 0.41 0.43 0.38 0.28
0.08 0.04 0.03 0.03 0.05 0.08 0.09 0.10 0.12 0.15 0.19 0.22 0.25 0.25 0.20 0.14 0.12 0.15 0.17 0.18 0.20 0.24 0.25 0.21 0.15 0.10 0.08 0.08 0.08 0.08 0.11 0.18 0.32 0.55 0.86 0.94 0.84 0.70 0.49 0.41 0.43 0.45 0.45
0.12 0.10 0.06 0.06 0.06 0.09 0.11 0.12 0.16 0.19 0.23 0.28 0.32 0.30 0.23 0.16 0.14 0.18 0.22 0.24 0.25 0.28 0.33 0.28 0.24 0.17 0.12 0.09 0.09 0.12 0.17 0.29 0.40 0.70 0.97 1.13 0.95 0.77 0.54 0.41 0.37 0.46 0.49
0.20 0.17 0.13 0.10 0.08 0.10 0.11 0.11 0.16 0.21 0.26 0.33 0.36 0.32 0.24 0.18 0.16 0.18 0.24 0.27 0.30 0.32 0.32 0.28 0.24 0.18 0.16 0.16 0.17 0.22 0.31 0.45 0.54 0.79 1.00 0.96 0.91 0.73 0.54 0.47 0.38 0.33 0.37
0.24 0.20 0.14 0.12 0.11 0.16 0.21 0.17 0.16 0.21 0.25 0.33 0.38 0.34 0.26 0.21 0.22 0.26 0.27 0.31 0.33 0.30 0.25 0.23 0.20 0.17 0.20 0.24 0.28 0.32 0.40 0.46 0.47 0.68 0.87 0.91 0.72 0.57 0.55 0.51 0.43 0.33 0.29
0.32 0.26 0.18 0.17 0.15 0.16 0.17 0.16 0.19 0.21 0.25 0.31 0.36 0.39 0.32 0.25 0.32 0.37 0.36 0.37 0.38 0.32 0.26 0.24 0.24 0.20 0.26 0.32 0.30 0.30 0.34 0.37 0.37 0.57 0.73 0.95 0.63 0.55 0.55 0.46 0.37 0.33 0.30
0.73 0.74 0.50 0.36 0.25 0.18 0.15 0.18 0.20 0.22 0.25 0.29 0.30 0.31 0.31 0.31 0.32 0.35 0.32 0.33 0.33 0.26 0.22 0.20 0.22 0.21 0.20 0.19 0.17 0.18 0.21 0.20 0.25 0.43 0.72 0.78 0.67 0.68 0.66 0.52 0.39 0.34 0.33
1.23 1.34 0.99 0.59 0.40 0.34 0.29 0.25 0.25 0.22 0.26 0.24 0.22 0.25 0.30 0.40 0.48 0.48 0.34 0.33 0.28 0.23 0.20 0.20 0.18 0.16 0.12 0.12 0.15 0.18 0.17 0.15 0.32 0.50 0.65 0.73 0.75 0.82 0.81 0.65 0.49 0.43 0.38
1.52 1.46 1.23 0.81 0.83 0.84 0.68 0.57 0.44 0.34 0.32 0.29 0.36 0.33 0.42 0.69 0.79 0.62 0.60 0.46 0.39 0.34 0.30 0.27 0.25 0.20 0.14 0.14 0.17 0.19 0.16 0.19 0.41 0.56 0.67 0.85 0.89 0.94 0.90 0.72 0.56 0.50 0.45
1.67 1.33 1.07 0.96 0.89 0.99 0.95 0.90 0.77 0.67 0.69 0.65 0.68 0.66 0.77 0.85 0.74 0.66 0.75 0.67 0.62 0.53 0.48 0.47 0.35 0.27 0.25 0.28 0.28 0.25 0.26 0.32 0.42 0.52 0.65 0.83 0.95 1.07 1.05 0.87 0.66 0.56 0.54
1.49 1.38 1.30 1.28 1.14 1.12 1.30 1.29 1.22 1.17 1.05 0.91 0.91 0.88 1.05 1.17 1.10 1.13 1.14 1.08 1.14 1.08 0.93 0.77 0.60 0.49 0.43 0.38 0.36 0.41 0.47 0.47 0.56 0.64 0.82 0.89 0.96 1.03 1.03 0.93 0.83 0.75 0.69
1.71 1.56 1.45 1.47 1.37 1.26 1.48 1.62 1.48 1.41 1.26 1.12 1.09 1.12 1.19 1.25 1.30 1.43 1.43 1.53 1.51 1.40 1.17 0.99 0.79 0.75 0.70 0.61 0.57 0.54 0.62 0.69 0.76 0.87 0.86 0.88 0.91 0.95 1.06 1.10 1.05 0.99 0.91
2.07 1.82 1.55 1.48 1.39 1.34 1.43 1.55 1.54 1.44 1.44 1.46 1.42 1.37 1.33 1.41 1.60 1.66 1.66 1.62 1.52 1.41 1.37 1.31 1.16 1.13 1.04 0.98 0.85 0.82 0.84 0.85 0.92 1.00 1.06 1.12 0.96 0.87 0.99 1.15 1.21 1.20 1.17
2.25 2.17 1.86 1.69 1.62 1.59 1.53 1.52 1.47 1.51 1.67 1.63 1.71 1.75 1.57 1.48 1.58 1.68 1.84 1.78 1.65 1.61 1.58 1.50 1.48 1.46 1.36 1.26 1.20 1.13 1.07 1.04 1.00 1.01 1.18 1.29 1.22 1.10 1.05 1.10 1.16 1.22 1.28
2.70 2.55 1.99 1.65 1.77 1.85 1.92 1.88 1.90 1.87 1.94 1.91 1.78 1.85 1.82 1.84 1.78 1.77 1.81 1.74 1.66 1.66 1.79 1.81 1.79 1.74 1.64 1.56 1.50 1.34 1.30 1.26 1.17 1.12 1.18 1.26 1.42 1.37 1.25 1.12 1.08 1.14 1.22
3.20 2.95 2.26 1.96 2.05 2.13 2.20 2.37 2.55 2.61 2.50 2.43 2.32 2.21 2.12 2.17 2.13 2.10 2.15 2.07 2.00 2.05 2.05 1.89 1.94 1.98 2.00 1.88 1.63 1.50 1.39 1.38 1.35 1.26 1.26 1.24 1.34 1.43 1.34 1.22 1.17 1.15 1.23
3.31 3.15 2.70 2.41 2.50 2.46 2.43 2.63 2.80 2.87 2.88 2.95 2.98 2.85 2.64 2.56 2.58 2.68 2.73 2.66 2.48 2.45 2.45 2.45 2.38 2.14 1.98 1.89 1.72 1.66 1.55 1.41 1.35 1.27 1.22 1.20 1.19 1.15 1.24 1.25 1.27 1.23 1.22
2.60 2.63 2.72 2.69 2.71 2.76 2.78 2.84 3.04 3.22 3.28 3.28 3.38 3.40 3.24 3.15 3.18 3.29 3.27 3.19 2.95 2.76 2.65 2.58 2.49 2.29 2.05 1.87 1.86 1.80 1.63 1.44 1.35 1.27 1.19 1.17 1.11 1.05 1.11 1.18 1.11 1.05 1.08
2.33 2.49 2.61 2.57 2.77 3.03 3.36 3.78 4.11 4.30 4.22 4.11 4.07 3.98 3.84 3.73 3.64 3.57 3.52 3.33 3.09 2.90 2.68 2.51 2.43 2.33 2.16 2.00 1.91 1.93 1.70 1.51 1.26 1.13 1.13 1.07 0.99 0.93 0.92 0.91 0.95 0.96 0.95
2.01 2.27 2.43 2.65 3.08 3.55 4.06 4.75 5.21 5.12 4.79 4.64 4.38 4.29 4.06 3.77 3.70 3.70 3.44 3.24 3.04 2.83 2.68 2.49 2.40 2.35 2.16 2.03 1.92 1.92 1.74 1.54 1.34 1.17 1.02 0.95 0.92 0.90 0.87 0.84 0.86 0.94 0.96
1.81 2.17 2.48 2.86 3.38 3.99 4.49 4.95 5.26 5.30 5.09 4.87 4.44 4.08 3.69 3.36 3.17 3.08 2.98 2.80 2.67 2.52 2.37 2.24 2.21 2.15 2.01 1.85 1.74 1.55 1.42 1.30 1.26 1.15 0.99 0.90 0.90 0.93 0.92 0.88 0.86 0.91 0.97
1.66 2.09 2.46 2.80 3.36 3.92 4.44 4.82 5.03 5.15 5.05 4.73 4.13 3.56 3.18 2.89 2.68 2.46 2.28 2.19 2.16 2.05 1.85 1.70 1.66 1.63 1.57 1.49 1.46 1.36 1.26 1.15 1.08 1.04 0.99 0.90 0.87 0.85 0.84 0.84 0.83 0.83 0.87
1.41 1.80 2.17 2.51 3.16 3.80 4.33 4.72 4.96 4.99 4.73 4.20 3.61 3.10 2.80 2.57 2.34 2.15 2.02 1.83 1.71 1.58 1.40 1.22 1.17 1.21 1.26 1.27 1.23 1.18 1.05 0.98 0.93 0.93 0.92 0.86 0.84 0.83 0.82 0.81 0.79 0.78 0.81

GEFSSE_prec_meanprecacc_150.txt.gz
Total_Precipitation_Accumulation
0.08 0.04 0.05 0.05 0.05 0.05 0.04 0.06 0.09 0.12 0.13 0.15 0.17 0.17 0.17 0.15 0.13 0.13 0.13 0.12 0.13 0.18 0.23 0.29 0.32 0.37 0.41 0.39 0.28 0.18 0.14 0.12 0.10 0.08 0.08 0.11 0.12 0.14 0.19 0.17 0.16 0.12 0.09
0.06 0.03 0.05 0.06 0.06 0.06 0.05 0.05 0.08 0.10 0.12 0.12 0.12 0.12 0.13 0.13 0.13 0.14 0.14 0.15 0.18 0.22 0.23 0.24 0.28 0.32 0.32 0.27 0.21 0.14 0.10 0.09 0.12 0.16 0.21 0.26 0.30 0.28 0.30 0.26 0.24 0.20 0.09
0.06 0.04 0.05 0.05 0.06 0.08 0.07 0.06 0.07 0.10 0.14 0.15 0.14 0.12 0.11 0.10 0.10 0.11 0.12 0.16 0.22 0.27 0.26 0.23 0.23 0.23 0.23 0.18 0.13 0.10 0.09 0.12 0.17 0.26 0.45 0.56 0.55 0.48 0.44 0.38 0.35 0.23 0.12
0.07 0.06 0.05 0.05 0.06 0.08 0.08 0.09 0.10 0.12 0.15 0.19 0.19 0.18 0.15 0.12 0.12 0.13 0.13 0.16 0.21 0.25 0.23 0.19 0.17 0.16 0.13 0.10 0.09 0.08 0.10 0.16 0.25 0.36 0.67 0.64 0.58 0.51 0.43 0.41 0.44 0.38 0.29
0.09 0.06 0.05 0.04 0.06 0.09 0.10 0.12 0.13 0.16 0.19 0.22 0.25 0.26 0.20 0.14 0.12 0.15 0.18 0.19 0.20 0.24 0.26 0.21 0.15 0.11 0.08 0.08 0.08 0.09 0.12 0.19 0.34 0.56 0.86 0.94 0.87 0.72 0.50 0.43 0.44 0.46 0.45
0.14 0.13 0.09 0.08 0.08 0.10 0.12 0.13 0.17 0.19 0.23 0.28 0.32 0.31 0.23 0.16 0.15 0.18 0.22 0.25 0.25 0.28 0.33 0.29 0.25 0.17 0.12 0.10 0.10 0.13 0.19 0.31 0.42 0.70 0.98 1.13 0.96 0.80 0.56 0.43 0.39 0.47 0.50
0.25 0.23 0.18 0.14 0.10 0.12 0.12 0.12 0.16 0.21 0.26 0.33 0.37 0.32 0.25 0.19 0.17 0.19 0.25 0.27 0.30 0.33 0.32 0.28 0.24 0.19 0.17 0.17 0.19 0.23 0.33 0.48 0.55 0.80 1.01 0.97 0.93 0.76 0.58 0.50 0.41 0.35 0.38
0.30 0.24 0.18 0.16 0.14 0.19 0.23 0.18 0.17 0.21 0.26 0.33 0.39 0.35 0.27 0.22 0.23 0.27 0.29 0.32 0.35 0.31 0.27 0.25 0.21 0.18 0.21 0.26 0.30 0.34 0.42 0.49 0.48 0.71 0.89 0.94 0.74 0.60 0.60 0.55 0.47 0.37 0.31
0.35 0.29 0.23 0.22 0.18 0.19 0.19 0.19 0.21 0.23 0.26 0.32 0.37 0.40 0.33 0.26 0.33 0.38 0.37 0.39 0.41 0.35 0.29 0.27 0.26 0.22 0.27 0.33 0.32 0.32 0.37 0.40 0.39 0.61 0.75 1.00 0.66 0.59 0.63 0.53 0.42 0.37 0.34
0.78 0.80 0.55 0.41 0.29 0.21 0.18 0.20 0.22 0.24 0.27 0.30 0.31 0.32 0.32 0.32 0.34 0.38 0.35 0.36 0.36 0.29 0.25 0.25 0.26 0.25 0.22 0.20 0.19 0.20 0.24 0.23 0.28 0.45 0.75 0.82 0.69 0.72 0.76 0.60 0.46 0.39 0.38
1.28 1.40 1.05 0.65 0.46 0.40 0.34 0.28 0.28 0.25 0.29 0.27 0.25 0.28 0.33 0.43 0.52 0.53 0.38 0.37 0.33 0.29 0.26 0.26 0.24 0.21 0.17 0.15 0.18 0.21 0.20 0.18 0.35 0.51 0.68 0.76 0.78 0.88 0.90 0.75 0.58 0.50 0.44
1.58 1.51 1.31 0.89 0.89 0.89 0.71 0.60 0.47 0.36 0.35 0.31 0.39 0.37 0.47 0.75 0.85 0.67 0.64 0.50 0.44 0.42 0.37 0.35 0.32 0.27 0.21 0.21 0.24 0.23 0.20 0.23 0.45 0.59 0.70 0.88 0.95 1.02 1.00 0.81 0.66 0.59 0.53
1.73 1.40 1.15 1.03 0.94 1.04 0.99 0.93 0.81 0.72 0.73 0.68 0.72 0.70 0.82 0.89 0.77 0.69 0.80 0.72 0.67 0.59 0.56 0.58 0.46 0.37 0.36 0.39 0.38 0.31 0.30 0.36 0.46 0.55 0.68 0.87 1.02 1.15 1.17 0.98 0.79 0.68 0.65
1.56 1.44 1.35 1.34 1.20 1.17 1.35 1.34 1.26 1.21 1.10 0.96 0.95 0.92 1.09 1.22 1.16 1.18 1.20 1.15 1.23 1.17 1.04 0.90 0.73 0.62 0.54 0.46 0.43 0.47 0.53 0.52 0.61 0.68 0.87 0.94 1.02 1.11 1.16 1.08 1.00 0.91 0.83
1.75 1.61 1.51 1.54 1.45 1.34 1.54 1.68 1.54 1.46 1.31 1.17 1.13 1.16 1.23 1.29 1.34 1.47 1.47 1.58 1.57 1.47 1.26 1.09 0.89 0.87 0.80 0.69 0.63 0.59 0.68 0.75 0.81 0.92 0.91 0.93 0.97 1.03 1.18 1.27 1.24 1.18 1.07
2.13 1.89 1.62 1.57 1.48 1.42 1.50 1.61 1.60 1.49 1.48 1.50 1.46 1.40 1.36 1.44 1.63 1.69 1.70 1.66 1.57 1.45 1.42 1.39 1.25 1.22 1.14 1.07 0.94 0.90 0.90 0.92 0.98 1.06 1.12 1.18 1.02 0.94 1.09 1.31 1.39 1.38 1.36
2.31 2.23 1.94 1.78 1.70 1.66 1.60 1.58 1.52 1.54 1.69 1.66 1.75 1.78 1.59 1.50 1.59 1.71 1.88 1.82 1.70 1.66 1.63 1.55 1.53 1.52 1.41 1.32 1.26 1.19 1.12 1.11 1.07 1.08 1.25 1.37 1.29 1.17 1.16 1.26 1.35 1.39 1.46
2.74 2.61 2.06 1.73 1.83 1.91 1.97 1.92 1.94 1.91 1.98 1.94 1.81 1.88 1.85 1.86 1.80 1.80 1.85 1.78 1.70 1.69 1.84 1.87 1.83 1.79 1.69 1.62 1.57 1.41 1.36 1.32 1.23 1.20 1.27 1.34 1.51 1.46 1.36 1.27 1.27 1.32 1.39
3.25 2.99 2.33 2.02 2.11 2.18 2.25 2.41 2.58 2.64 2.53 2.46 2.35 2.25 2.15 2.21 2.18 2.15 2.21 2.13 2.04 2.10 2.10 1.94 1.99 2.02 2.04 1.93 1.69 1.55 1.45 1.44 1.41 1.32 1.32 1.31 1.43 1.56 1.50 1.39 1.32 1.29 1.38
3.36 3.19 2.72 2.44 2.54 2.51 2.49 2.68 2.83 2.90 2.90 2.97 3.00 2.87 2.68 2.61 2.63 2.73 2.79 2.72 2.53 2.49 2.49 2.50 2.43 2.18 2.02 1.93 1.76 1.71 1.60 1.46 1.39 1.32 1.27 1.27 1.29 1.27 1.36 1.36 1.39 1.37 1.36
2.66 2.67 2.74 2.71 2.74 2.80 2.80 2.88 3.07 3.24 3.30 3.30 3.40 3.43 3.28 3.20 3.23 3.35 3.33 3.24 2.99 2.80 2.70 2.64 2.54 2.34 2.09 1.92 1.90 1.84 1.68 1.48 1.40 1.33 1.26 1.23 1.16 1.11 1.18 1.26 1.20 1.14 1.18
2.40 2.58 2.69 2.63 2.82 3.06 3.39 3.80 4.13 4.32 4.23 4.13 4.08 4.00 3.87 3.77 3.68 3.61 3.58 3.39 3.15 2.96 2.75 2.57 2.48 2.38 2.21 2.05 1.97 2.01 1.79 1.59 1.33 1.19 1.19 1.13 1.05 1.01 1.00 0.97 1.03 1.06 1.04
2.05 2.35 2.55 2.74 3.14 3.59 4.09 4.77 5.23 5.13 4.80 4.65 4.40 4.30 4.09 3.82 3.74 3.75 3.50 3.30 3.10 2.90 2.73 2.53 2.45 2.40 2.22 2.08 1.98 2.01 1.86 1.66 1.44 1.27 1.09 1.00 0.98 0.97 0.96 0.93 0.95 1.04 1.05
1.83 2.22 2.56 2.93 3.43 4.03 4.51 4.97 5.28 5.32 5.12 4.90 4.47 4.11 3.72 3.40 3.22 3.13 3.03 2.85 2.73 2.58 2.44 2.29 2.26 2.20 2.07 1.91 1.81 1.63 1.52 1.42 1.39 1.27 1.09 0.97 0.96 0.99 1.00 0.96 0.97 1.02 1.07
1.68 2.12 2.49 2.85 3.40 3.95 4.46 4.83 5.04 5.17 5.07 4.76 4.16 3.58 3.21 2.92 2.71 2.50 2.32 2.22 2.19 2.10 1.90 1.74 1.69 1.67 1.60 1.53 1.50 1.40 1.31 1.22 1.18 1.15 1.10 1.01 0.95 0.91 0.90 0.91 0.91 0.93 0.97
1.44 1.82 2.20 2.54 3.19 3.83 4.35 4.73 4.97 5.01 4.75 4.22 3.63 3.12 2.82 2.59 2.37 2.17 2.03 1.85 1.74 1.61 1.44 1.26 1.20 1.23 1.28 1.29 1.26 1.21 1.09 1.03 0.99 1.00 0.99 0.93 0.91 0.90 0.87 0.88 0.88 0.87 0.91

GEFSSE_prec_meanprecacc_156.txt.gz
Total_Precipitation_Accumulation
0.10 0.04 0.05 0.06 0.05 0.05 0.05 0.07 0.10 0.13 0.14 0.15 0.17 0.17 0.17 0.15 0.14 0.14 0.13 0.12 0.13 0.18 0.23 0.29 0.32 0.37 0.41 0.39 0.28 0.18 0.14 0.12 0.10 0.08 0.08 0.11 0.12 0.14 0.19 0.17 0.19 0.15 0.10
0.07 0.03 0.05 0.06 0.07 0.07 0.06 0.07 0.09 0.11 0.13 0.13 0.12 0.12 0.13 0.13 0.13 0.14 0.14 0.16 0.18 0.23 0.23 0.24 0.28 0.32 0.33 0.27 0.21 0.14 0.10 0.09 0.12 0.16 0.21 0.26 0.30 0.28 0.31 0.27 0.28 0.24 0.10
0.07 0.05 0.05 0.06 0.07 0.08 0.08 0.08 0.09 0.11 0.15 0.16 0.15 0.13 0.11 0.11 0.11 0.11 0.12 0.16 0.23 0.27 0.26 0.24 0.23 0.24 0.24 0.19 0.13 0.10 0.09 0.12 0.17 0.27 0.47 0.58 0.55 0.48 0.44 0.39 0.37 0.25 0.12
0.08 0.07 0.06 0.06 0.07 0.10 0.09 0.11 0.11 0.14 0.16 0.20 0.20 0.19 0.15 0.12 0.12 0.13 0.14 0.16 0.22 0.25 0.23 0.20 0.17 0.16 0.14 0.10 0.09 0.09 0.11 0.16 0.25 0.38 0.74 0.69 0.60 0.52 0.43 0.42 0.44 0.39 0.29
0.11 0.07 0.05 0.05 0.07 0.10 0.11 0.13 0.15 0.18 0.21 0.24 0.27 0.27 0.21 0.14 0.13 0.16 0.18 0.19 0.21 0.24 0.26 0.22 0.16 0.11 0.09 0.09 0.09 0.09 0.13 0.20 0.34 0.58 0.90 1.00 0.92 0.74 0.51 0.43 0.45 0.46 0.46
0.16 0.14 0.10 0.09 0.09 0.11 0.13 0.15 0.20 0.23 0.26 0.31 0.34 0.32 0.24 0.17 0.16 0.19 0.23 0.25 0.26 0.29 0.33 0.29 0.25 0.18 0.13 0.10 0.11 0.14 0.19 0.31 0.43 0.71 1.00 1.20 1.05 0.85 0.58 0.44 0.39 0.48 0.50
0.27 0.24 0.18 0.14 0.11 0.13 0.14 0.14 0.18 0.23 0.28 0.34 0.38 0.34 0.27 0.21 0.19 0.21 0.26 0.28 0.31 0.33 0.33 0.29 0.25 0.19 0.17 0.18 0.19 0.24 0.33 0.48 0.56 0.81 1.03 1.00 1.00 0.81 0.60 0.51 0.42 0.37 0.40
0.32 0.26 0.19 0.17 0.15 0.20 0.24 0.20 0.19 0.22 0.27 0.35 0.40 0.36 0.28 0.23 0.25 0.29 0.30 0.33 0.36 0.32 0.28 0.26 0.22 0.19 0.21 0.27 0.30 0.35 0.42 0.49 0.49 0.71 0.90 0.97 0.78 0.63 0.62 0.58 0.50 0.40 0.35
0.37 0.32 0.26 0.24 0.20 0.20 0.20 0.20 0.23 0.24 0.27 0.33 0.38 0.41 0.34 0.27 0.34 0.39 0.39 0.40 0.43 0.37 0.31 0.29 0.28 0.24 0.28 0.34 0.32 0.33 0.37 0.41 0.40 0.62 0.79 1.05 0.72 0.63 0.66 0.56 0.46 0.41 0.37
0.82 0.85 0.61 0.48 0.36 0.27 0.22 0.22 0.24 0.26 0.29 0.32 0.33 0.34 0.33 0.34 0.37 0.40 0.37 0.38 0.37 0.31 0.27 0.27 0.29 0.27 0.24 0.22 0.20 0.22 0.25 0.24 0.28 0.47 0.84 0.89 0.73 0.77 0.80 0.65 0.52 0.44 0.42
1.35 1.47 1.14 0.74 0.56 0.48 0.41 0.33 0.32 0.29 0.32 0.31 0.29 0.31 0.37 0.53 0.64 0.65 0.45 0.41 0.36 0.31 0.28 0.28 0.26 0.23 0.18 0.17 0.21 0.24 0.22 0.19 0.36 0.55 0.73 0.82 0.84 0.93 0.95 0.80 0.64 0.56 0.49
1.68 1.62 1.41 0.99 0.99 1.01 0.81 0.69 0.57 0.45 0.44 0.41 0.49 0.45 0.57 0.92 1.02 0.79 0.74 0.56 0.48 0.44 0.40 0.37 0.35 0.30 0.24 0.26 0.31 0.29 0.23 0.25 0.47 0.61 0.75 0.96 1.01 1.06 1.04 0.85 0.70 0.63 0.58
1.80 1.47 1.23 1.13 1.06 1.18 1.15 1.05 0.93 0.86 0.91 0.86 0.86 0.83 0.98 1.05 0.90 0.78 0.92 0.82 0.74 0.64 0.64 0.68 0.54 0.44 0.46 0.50 0.51 0.42 0.38 0.42 0.49 0.59 0.78 1.00 1.09 1.20 1.21 1.03 0.83 0.73 0.72
1.66 1.50 1.41 1.41 1.31 1.30 1.50 1.48 1.40 1.36 1.25 1.10 1.08 1.05 1.24 1.36 1.28 1.29 1.32 1.27 1.35 1.29 1.19 1.04 0.88 0.73 0.65 0.58 0.53 0.58 0.65 0.63 0.69 0.79 1.04 1.09 1.09 1.17 1.22 1.14 1.06 0.97 0.90
1.82 1.66 1.56 1.60 1.55 1.48 1.70 1.85 1.70 1.64 1.46 1.30 1.26 1.28 1.36 1.41 1.47 1.59 1.59 1.69 1.67 1.57 1.37 1.21 1.00 0.99 0.91 0.80 0.74 0.70 0.81 0.90 0.97 1.10 1.12 1.08 1.04 1.07 1.23 1.32 1.29 1.25 1.14
2.17 1.93 1.66 1.63 1.55 1.50 1.60 1.73 1.75 1.66 1.67 1.65 1.59 1.51 1.49 1.60 1.76 1.82 1.83 1.78 1.67 1.53 1.51 1.48 1.33 1.31 1.23 1.15 1.02 1.01 1.01 1.04 1.13 1.20 1.27 1.33 1.11 0.99 1.13 1.36 1.44 1.45 1.46
2.34 2.27 1.98 1.84 1.78 1.74 1.68 1.68 1.66 1.70 1.87 1.83 1.89 1.90 1.71 1.62 1.69 1.81 1.97 1.90 1.77 1.72 1.69 1.60 1.59 1.58 1.47 1.38 1.33 1.27 1.23 1.21 1.16 1.20 1.38 1.53 1.45 1.28 1.23 1.32 1.42 1.48 1.56
2.79 2.65 2.10 1.77 1.92 2.02 2.08 2.04 2.10 2.10 2.19 2.10 1.95 2.02 1.95 1.94 1.87 1.87 1.91 1.86 1.76 1.74 1.90 1.94 1.90 1.86 1.75 1.68 1.64 1.48 1.44 1.43 1.34 1.30 1.37 1.44 1.64 1.61 1.48 1.35 1.34 1.42 1.50
3.28 3.02 2.36 2.06 2.15 2.26 2.33 2.50 2.70 2.77 2.71 2.60 2.47 2.39 2.25 2.29 2.23 2.20 2.27 2.20 2.09 2.15 2.16 2.02 2.06 2.10 2.11 2.01 1.75 1.62 1.49 1.49 1.47 1.38 1.38 1.36 1.51 1.66 1.61 1.49 1.39 1.35 1.46
3.38 3.20 2.74 2.47 2.57 2.56 2.56 2.77 2.94 3.00 2.98 3.04 3.08 2.98 2.76 2.65 2.67 2.76 2.84 2.78 2.58 2.55 2.56 2.58 2.50 2.26 2.10 2.01 1.81 1.76 1.65 1.50 1.45 1.39 1.32 1.32 1.35 1.34 1.44 1.44 1.49 1.44 1.41
2.68 2.68 2.75 2.73 2.77 2.83 2.85 2.94 3.19 3.36 3.38 3.35 3.45 3.48 3.32 3.24 3.27 3.38 3.37 3.30 3.04 2.86 2.77 2.71 2.61 2.41 2.18 2.00 1.98 1.91 1.74 1.55 1.48 1.41 1.33 1.29 1.21 1.16 1.24 1.33 1.29 1.24 1.26
2.42 2.60 2.71 2.66 2.85 3.10 3.44 3.85 4.19 4.42 4.37 4.22 4.15 4.05 3.90 3.80 3.72 3.64 3.62 3.43 3.19 3.02 2.81 2.64 2.56 2.46 2.29 2.13 2.06 2.10 1.86 1.68 1.42 1.27 1.28 1.21 1.14 1.09 1.07 1.05 1.12 1.16 1.14
2.06 2.37 2.57 2.76 3.16 3.62 4.13 4.81 5.26 5.18 4.87 4.73 4.47 4.36 4.13 3.86 3.78 3.79 3.55 3.35 3.15 2.95 2.79 2.59 2.52 2.48 2.29 2.17 2.08 2.12 1.96 1.75 1.52 1.37 1.21 1.11 1.08 1.08 1.06 1.03 1.05 1.13 1.14
1.86 2.26 2.60 2.96 3.46 4.07 4.56 5.03 5.33 5.37 5.17 4.95 4.52 4.16 3.77 3.43 3.24 3.17 3.09 2.89 2.77 2.64 2.49 2.35 2.34 2.27 2.13 1.98 1.88 1.72 1.61 1.50 1.47 1.37 1.22 1.09 1.06 1.09 1.09 1.06 1.05 1.10 1.14
1.70 2.14 2.53 2.88 3.46 4.01 4.53 4.88 5.10 5.23 5.13 4.81 4.19 3.62 3.24 2.94 2.73 2.53 2.36 2.26 2.24 2.14 1.96 1.79 1.76 1.73 1.65 1.57 1.54 1.46 1.39 1.31 1.27 1.25 1.20 1.11 1.04 0.99 0.97 0.98 0.99 1.00 1.03
1.45 1.84 2.22 2.58 3.25 3.88 4.41 4.78 5.02 5.06 4.80 4.26 3.67 3.16 2.84 2.61 2.38 2.19 2.06 1.89 1.79 1.67 1.50 1.33 1.25 1.26 1.31 1.32 1.30 1.25 1.14 1.09 1.07 1.09 1.07 1.02 1.00 0.96 0.92 0.92 0.92 0.93 0.96

GEFSSE_prec_meanprecacc_162.txt.gz
Total_Precipitation_Accumulation
0.11 0.05 0.05 0.06 0.05 0.05 0.05 0.07 0.10 0.13 0.14 0.15 0.17 0.17 0.17 0.15 0.14 0.14 0.13 0.12 0.14 0.18 0.23 0.29 0.32 0.37 0.41 0.40 0.30 0.20 0.15 0.13 0.11 0.09 0.10 0.12 0.14 0.16 0.21 0.19 0.20 0.16 0.12
0.08 0.04 0.06 0.06 0.07 0.07 0.06 0.07 0.10 0.12 0.13 0.13 0.12 0.12 0.13 0.13 0.13 0.14 0.14 0.16 0.19 0.23 0.23 0.24 0.28 0.32 0.33 0.28 0.21 0.14 0.11 0.10 0.13 0.17 0.22 0.27 0.32 0.30 0.34 0.30 0.31 0.26 0.11
0.07 0.05 0.05 0.06 0.08 0.09 0.08 0.08 0.09 0.12 0.15 0.16 0.15 0.13 0.11 0.11 0.11 0.11 0.13 0.16 0.23 0.27 0.27 0.24 0.23 0.24 0.24 0.19 0.14 0.10 0.10 0.13 0.19 0.28 0.48 0.59 0.57 0.51 0.47 0.41 0.39 0.27 0.13
0.09 0.07 0.06 0.06 0.08 0.10 0.10 0.11 0.12 0.14 0.16 0.20 0.21 0.19 0.16 0.13 0.12 0.13 0.14 0.16 0.22 0.26 0.24 0.20 0.17 0.16 0.14 0.10 0.09 0.09 0.11 0.17 0.27 0.41 0.77 0.72 0.63 0.55 0.46 0.44 0.46 0.40 0.30
0.12 0.07 0.06 0.05 0.07 0.10 0.12 0.14 0.15 0.18 0.22 0.25 0.27 0.27 0.21 0.15 0.13 0.16 0.19 0.19 0.21 0.25 0.26 0.22 0.16 0.12 0.09 0.09 0.09 0.10 0.13 0.21 0.37 0.64 1.00 1.10 1.03 0.82 0.55 0.45 0.46 0.47 0.46
0.16 0.14 0.10 0.10 0.09 0.12 0.14 0.16 0.20 0.24 0.28 0.33 0.35 0.33 0.25 0.17 0.16 0.20 0.24 0.25 0.26 0.29 0.34 0.29 0.25 0.18 0.13 0.11 0.11 0.14 0.20 0.33 0.46 0.76 1.08 1.31 1.18 0.96 0.64 0.47 0.41 0.49 0.51
0.27 0.24 0.18 0.15 0.12 0.14 0.14 0.15 0.19 0.24 0.29 0.36 0.39 0.34 0.27 0.21 0.19 0.21 0.27 0.29 0.31 0.34 0.33 0.29 0.25 0.19 0.18 0.18 0.19 0.24 0.34 0.49 0.59 0.85 1.11 1.10 1.08 0.91 0.69 0.57 0.45 0.39 0.41
0.32 0.26 0.19 0.17 0.15 0.20 0.25 0.21 0.20 0.23 0.28 0.36 0.41 0.37 0.29 0.24 0.25 0.30 0.31 0.34 0.37 0.34 0.29 0.26 0.22 0.19 0.21 0.27 0.31 0.35 0.43 0.50 0.51 0.75 0.97 1.05 0.88 0.78 0.74 0.65 0.54 0.43 0.37
0.38 0.33 0.26 0.25 0.21 0.21 0.22 0.21 0.24 0.25 0.28 0.34 0.39 0.42 0.35 0.29 0.36 0.41 0.41 0.42 0.45 0.39 0.33 0.30 0.29 0.24 0.28 0.35 0.33 0.33 0.38 0.43 0.43 0.66 0.88 1.14 0.82 0.80 0.81 0.63 0.50 0.44 0.39
0.85 0.87 0.63 0.50 0.38 0.29 0.24 0.24 0.26 0.27 0.30 0.33 0.34 0.35 0.35 0.35 0.39 0.43 0.39 0.40 0.40 0.33 0.29 0.29 0.30 0.28 0.25 0.23 0.21 0.23 0.27 0.26 0.31 0.51 0.92 0.99 0.85 0.92 0.94 0.74 0.58 0.50 0.46
1.40 1.50 1.17 0.77 0.61 0.60 0.47 0.34 0.34 0.31 0.34 0.33 0.31 0.34 0.40 0.54 0.66 0.67 0.47 0.45 0.40 0.34 0.31 0.31 0.28 0.25 0.20 0.18 0.22 0.25 0.24 0.20 0.39 0.60 0.80 0.91 0.98 1.13 1.13 0.92 0.73 0.63 0.54
1.75 1.69 1.52 1.06 1.08 1.22 0.92 0.71 0.59 0.49 0.48 0.44 0.53 0.48 0.61 0.94 1.05 0.81 0.77 0.61 0.54 0.49 0.44 0.41 0.39 0.33 0.27 0.27 0.33 0.32 0.25 0.28 0.54 0.68 0.81 1.05 1.16 1.27 1.22 0.98 0.80 0.71 0.65
1.95 1.56 1.29 1.19 1.11 1.25 1.22 1.09 0.97 0.90 0.96 0.94 0.92 0.87 1.02 1.09 0.95 0.84 0.98 0.86 0.78 0.69 0.68 0.72 0.59 0.48 0.48 0.55 0.56 0.47 0.43 0.48 0.61 0.68 0.85 1.14 1.30 1.40 1.40 1.17 0.93 0.81 0.78
1.77 1.58 1.47 1.46 1.36 1.35 1.56 1.56 1.47 1.43 1.32 1.17 1.15 1.10 1.28 1.40 1.34 1.37 1.40 1.34 1.39 1.32 1.24 1.09 0.93 0.77 0.69 0.65 0.62 0.66 0.72 0.71 0.78 0.89 1.16 1.29 1.32 1.34 1.37 1.26 1.15 1.05 0.96
1.91 1.72 1.61 1.65 1.63 1.55 1.78 1.94 1.78 1.74 1.54 1.37 1.32 1.34 1.42 1.48 1.54 1.67 1.67 1.78 1.73 1.61 1.42 1.26 1.07 1.05 0.97 0.86 0.81 0.78 0.88 1.00 1.07 1.22 1.28 1.36 1.33 1.29 1.36 1.43 1.39 1.33 1.21
2.20 1.95 1.71 1.69 1.59 1.55 1.66 1.81 1.81 1.74 1.77 1.73 1.67 1.59 1.58 1.69 1.87 1.90 1.91 1.87 1.74 1.59 1.55 1.52 1.39 1.36 1.28 1.20 1.06 1.05 1.06 1.09 1.20 1.31 1.40 1.51 1.27 1.16 1.30 1.50 1.55 1.55 1.54
2.36 2.29 2.01 1.87 1.82 1.78 1.73 1.72 1.71 1.78 1.99 1.96 1.99 2.00 1.83 1.75 1.86 1.94 2.06 2.00 1.87 1.78 1.74 1.65 1.64 1.61 1.50 1.41 1.36 1.30 1.27 1.25 1.22 1.26 1.46 1.61 1.55 1.41 1.38 1.44 1.53 1.58 1.66
2.81 2.68 2.14 1.80 1.96 2.05 2.10 2.07 2.14 2.19 2.31 2.23 2.07 2.15 2.10 2.08 2.00 2.00 1.99 1.91 1.83 1.79 1.94 1.98 1.94 1.89 1.78 1.70 1.66 1.50 1.48 1.47 1.38 1.35 1.42 1.51 1.70 1.69 1.58 1.45 1.42 1.50 1.60
3.33 3.07 2.40 2.10 2.18 2.29 2.35 2.53 2.73 2.83 2.82 2.73 2.58 2.51 2.37 2.43 2.37 2.32 2.37 2.26 2.13 2.18 2.20 2.05 2.10 2.14 2.14 2.03 1.76 1.63 1.52 1.52 1.49 1.40 1.42 1.40 1.55 1.73 1.71 1.59 1.48 1.44 1.55
3.42 3.25 2.79 2.50 2.61 2.59 2.59 2.79 2.97 3.04 3.03 3.10 3.14 3.09 2.89 2.78 2.78 2.85 2.92 2.85 2.64 2.60 2.61 2.62 2.53 2.29 2.13 2.03 1.82 1.78 1.67 1.53 1.47 1.41 1.35 1.36 1.39 1.38 1.50 1.49 1.54 1.50 1.48
2.73 2.73 2.79 2.77 2.80 2.86 2.87 2.95 3.20 3.38 3.40 3.37 3.48 3.54 3.40 3.31 3.32 3.43 3.42 3.35 3.10 2.91 2.81 2.75 2.64 2.45 2.21 2.01 1.99 1.93 1.75 1.57 1.51 1.44 1.35 1.32 1.24 1.19 1.27 1.39 1.33 1.28 1.31
2.47 2.64 2.75 2.68 2.86 3.12 3.45 3.86 4.20 4.43 4.39 4.24 4.18 4.10 3.95 3.85 3.75 3.66 3.65 3.47 3.23 3.06 2.86 2.68 2.60 2.49 2.31 2.15 2.08 2.12 1.89 1.72 1.45 1.29 1.30 1.24 1.16 1.12 1.10 1.10 1.18 1.21 1.19
2.14 2.42 2.61 2.78 3.17 3.63 4.14 4.82 5.27 5.19 4.89 4.76 4.51 4.40 4.16 3.88 3.81 3.81 3.58 3.39 3.18 2.99 2.82 2.63 2.55 2.50 2.31 2.19 2.11 2.16 2.00 1.82 1.59 1.42 1.25 1.15 1.12 1.13 1.11 1.08 1.10 1.19 1.20
1.93 2.30 2.62 2.98 3.47 4.07 4.56 5.04 5.34 5.38 5.18 4.97 4.55 4.18 3.80 3.46 3.27 3.19 3.11 2.92 2.80 2.67 2.52 2.38 2.36 2.29 2.16 2.01 1.92 1.75 1.65 1.58 1.56 1.43 1.27 1.13 1.10 1.14 1.14 1.10 1.10 1.14 1.19
1.73 2.17 2.55 2.90 3.47 4.02 4.54 4.90 5.11 5.24 5.14 4.83 4.21 3.64 3.27 2.97 2.76 2.55 2.38 2.28 2.27 2.18 1.99 1.83 1.78 1.76 1.69 1.61 1.58 1.49 1.41 1.35 1.34 1.30 1.25 1.16 1.09 1.02 1.00 1.01 1.02 1.04 1.07
1.50 1.87 2.24 2.59 3.26 3.90 4.43 4.80 5.04 5.09 4.83 4.29 3.70 3.20 2.88 2.63 2.40 2.20 2.07 1.91 1.81 1.70 1.53 1.37 1.29 1.29 1.34 1.35 1.33 1.28 1.16 1.13 1.14 1.16 1.11 1.05 1.03 0.99 0.95 0.94 0.95 0.96 0.98

GEFSSE_prec_meanprecacc_168.txt.gz
Total_Precipitation_Accumulation
0.14 0.07 0.08 0.07 0.06 0.06 0.06 0.07 0.10 0.13 0.14 0.15 0.17 0.17 0.17 0.15 0.14 0.14 0.13 0.13 0.14 0.19 0.24 0.30 0.33 0.38 0.43 0.41 0.31 0.21 0.16 0.14 0.11 0.10 0.11 0.14 0.17 0.20 0.25 0.22 0.22 0.17 0.13
0.09 0.06 0.08 0.07 0.08 0.08 0.06 0.07 0.10 0.12 0.13 0.13 0.12 0.12 0.13 0.13 0.13 0.14 0.14 0.16 0.19 0.23 0.23 0.25 0.29 0.32 0.33 0.28 0.22 0.15 0.11 0.11 0.13 0.18 0.23 0.29 0.36 0.36 0.41 0.34 0.32 0.28 0.14
0.09 0.06 0.06 0.08 0.08 0.09 0.08 0.08 0.09 0.12 0.15 0.16 0.15 0.13 0.12 0.11 0.11 0.12 0.13 0.17 0.24 0.28 0.27 0.24 0.23 0.24 0.24 0.19 0.14 0.11 0.11 0.14 0.20 0.30 0.50 0.61 0.60 0.55 0.52 0.45 0.41 0.29 0.15
0.10 0.08 0.07 0.07 0.09 0.10 0.10 0.11 0.12 0.15 0.17 0.21 0.21 0.19 0.16 0.13 0.12 0.13 0.14 0.17 0.23 0.26 0.24 0.20 0.17 0.16 0.14 0.11 0.10 0.10 0.13 0.20 0.30 0.44 0.79 0.73 0.66 0.59 0.50 0.47 0.48 0.42 0.32
0.13 0.08 0.06 0.06 0.08 0.11 0.13 0.15 0.17 0.19 0.22 0.25 0.27 0.27 0.21 0.15 0.13 0.17 0.19 0.19 0.21 0.25 0.27 0.22 0.16 0.12 0.10 0.10 0.10 0.10 0.14 0.24 0.40 0.66 1.03 1.13 1.06 0.86 0.59 0.48 0.48 0.48 0.47
0.17 0.15 0.11 0.11 0.11 0.13 0.16 0.18 0.22 0.25 0.28 0.33 0.35 0.33 0.25 0.18 0.16 0.20 0.24 0.26 0.26 0.29 0.34 0.29 0.26 0.18 0.13 0.11 0.12 0.15 0.21 0.36 0.48 0.78 1.10 1.33 1.21 1.00 0.69 0.52 0.44 0.51 0.52
0.28 0.25 0.20 0.16 0.13 0.15 0.16 0.16 0.21 0.25 0.29 0.36 0.40 0.35 0.28 0.22 0.20 0.22 0.28 0.30 0.32 0.34 0.34 0.29 0.25 0.19 0.18 0.18 0.19 0.25 0.35 0.52 0.60 0.86 1.12 1.11 1.10 0.95 0.75 0.63 0.50 0.42 0.43
0.33 0.27 0.20 0.18 0.16 0.21 0.26 0.22 0.21 0.24 0.29 0.36 0.41 0.38 0.30 0.25 0.27 0.32 0.32 0.36 0.38 0.34 0.30 0.27 0.23 0.20 0.22 0.27 0.31 0.36 0.44 0.52 0.52 0.76 0.98 1.06 0.90 0.81 0.80 0.72 0.60 0.47 0.40
0.39 0.33 0.27 0.25 0.21 0.21 0.22 0.22 0.26 0.26 0.29 0.35 0.39 0.43 0.36 0.30 0.37 0.43 0.42 0.43 0.46 0.40 0.34 0.31 0.30 0.26 0.30 0.36 0.34 0.35 0.41 0.45 0.44 0.67 0.88 1.15 0.84 0.85 0.89 0.70 0.57 0.50 0.44
0.86 0.88 0.63 0.50 0.39 0.30 0.25 0.26 0.28 0.29 0.31 0.34 0.35 0.36 0.35 0.36 0.40 0.44 0.41 0.42 0.42 0.35 0.31 0.31 0.31 0.29 0.27 0.26 0.24 0.26 0.31 0.29 0.32 0.52 0.93 1.00 0.88 0.98 1.03 0.83 0.64 0.56 0.52
1.42 1.52 1.19 0.78 0.62 0.62 0.49 0.36 0.36 0.32 0.35 0.34 0.32 0.35 0.41 0.55 0.67 0.68 0.49 0.48 0.44 0.37 0.34 0.35 0.32 0.27 0.22 0.21 0.26 0.29 0.28 0.23 0.42 0.62 0.81 0.93 1.01 1.19 1.21 1.01 0.82 0.71 0.62
1.77 1.71 1.54 1.08 1.10 1.23 0.93 0.72 0.60 0.50 0.50 0.46 0.54 0.50 0.62 0.95 1.06 0.82 0.79 0.64 0.57 0.52 0.47 0.45 0.43 0.37 0.29 0.30 0.35 0.35 0.28 0.31 0.57 0.71 0.83 1.09 1.23 1.36 1.32 1.08 0.91 0.80 0.74
1.97 1.59 1.31 1.20 1.12 1.26 1.23 1.10 0.99 0.92 0.98 0.97 0.96 0.90 1.04 1.10 0.97 0.85 0.99 0.88 0.81 0.72 0.71 0.75 0.63 0.51 0.51 0.58 0.61 0.51 0.46 0.52 0.64 0.71 0.88 1.19 1.37 1.49 1.51 1.28 1.05 0.92 0.87
1.79 1.60 1.48 1.47 1.37 1.36 1.57 1.57 1.49 1.45 1.35 1.21 1.20 1.14 1.31 1.43 1.37 1.39 1.42 1.36 1.41 1.35 1.27 1.11 0.95 0.79 0.71 0.68 0.66 0.70 0.76 0.74 0.81 0.92 1.19 1.35 1.40 1.45 1.48 1.39 1.29 1.18 1.07
1.94 1.74 1.62 1.67 1.64 1.56 1.80 1.96 1.79 1.76 1.58 1.40 1.36 1.38 1.46 1.52 1.57 1.70 1.71 1.80 1.75 1.63 1.43 1.27 1.08 1.07 0.99 0.89 0.83 0.80 0.91 1.04 1.12 1.27 1.33 1.43 1.40 1.38 1.48 1.57 1.54 1.48 1.33
2.24 1.98 1.73 1.72 1.62 1.58 1.69 1.84 1.84 1.77 1.81 1.77 1.71 1.64 1.62 1.73 1.91 1.95 1.96 1.91 1.78 1.62 1.57 1.54 1.40 1.37 1.30 1.22 1.08 1.07 1.09 1.12 1.23 1.34 1.45 1.57 1.34 1.24 1.40 1.61 1.68 1.68 1.67
2.43 2.34 2.05 1.91 1.86 1.82 1.77 1.76 1.74 1.82 2.03 2.00 2.04 2.06 1.89 1.81 1.91 1.99 2.10 2.03 1.90 1.81 1.78 1.69 1.67 1.64 1.53 1.44 1.39 1.34 1.30 1.28 1.24 1.28 1.49 1.66 1.61 1.49 1.48 1.55 1.63 1.69 1.79
2.90 2.76 2.22 1.86 2.01 2.10 2.14 2.11 2.17 2.22 2.35 2.28 2.13 2.21 2.15 2.13 2.04 2.03 2.02 1.94 1.86 1.81 1.98 2.04 1.99 1.93 1.81 1.72 1.68 1.53 1.51 1.49 1.40 1.36 1.43 1.53 1.75 1.77 1.67 1.53 1.50 1.60 1.73
3.44 3.17 2.50 2.17 2.23 2.33 2.39 2.56 2.76 2.86 2.85 2.76 2.60 2.56 2.42 2.46 2.40 2.35 2.40 2.30 2.17 2.21 2.24 2.10 2.14 2.17 2.17 2.05 1.78 1.65 1.54 1.54 1.51 1.42 1.43 1.42 1.57 1.78 1.79 1.70 1.59 1.55 1.67
3.54 3.36 2.87 2.58 2.69 2.65 2.64 2.84 3.00 3.07 3.08 3.13 3.16 3.11 2.92 2.81 2.81 2.88 2.94 2.87 2.67 2.63 2.64 2.66 2.57 2.33 2.16 2.06 1.84 1.80 1.70 1.55 1.48 1.42 1.36 1.36 1.41 1.41 1.54 1.55 1.61 1.57 1.57
2.86 2.85 2.90 2.87 2.91 2.96 2.93 2.99 3.23 3.41 3.43 3.40 3.50 3.55 3.41 3.33 3.35 3.45 3.44 3.38 3.14 2.96 2.84 2.78 2.67 2.48 2.24 2.04 2.00 1.94 1.76 1.59 1.53 1.46 1.37 1.34 1.26 1.21 1.30 1.43 1.37 1.30 1.34
2.60 2.75 2.84 2.77 2.96 3.22 3.54 3.92 4.25 4.47 4.42 4.27 4.20 4.11 3.96 3.85 3.77 3.68 3.67 3.49 3.26 3.12 2.91 2.72 2.62 2.52 2.34 2.17 2.11 2.14 1.90 1.74 1.49 1.35 1.35 1.28 1.20 1.16 1.14 1.15 1.21 1.23 1.22
2.26 2.53 2.68 2.88 3.29 3.74 4.21 4.88 5.32 5.22 4.91 4.79 4.53 4.41 4.17 3.89 3.81 3.82 3.60 3.41 3.20 3.01 2.86 2.65 2.58 2.52 2.33 2.22 2.14 2.19 2.02 1.84 1.62 1.49 1.33 1.22 1.17 1.17 1.15 1.13 1.14 1.22 1.23
2.02 2.40 2.72 3.09 3.61 4.20 4.64 5.09 5.38 5.41 5.20 4.99 4.56 4.19 3.81 3.46 3.28 3.20 3.14 2.94 2.82 2.68 2.54 2.39 2.37 2.31 2.19 2.03 1.94 1.78 1.67 1.60 1.58 1.47 1.33 1.20 1.17 1.19 1.17 1.13 1.13 1.17 1.22
1.82 2.26 2.63 2.97 3.55 4.10 4.60 4.95 5.16 5.27 5.17 4.85 4.23 3.65 3.28 2.98 2.77 2.57 2.40 2.31 2.29 2.20 2.01 1.84 1.79 1.77 1.70 1.63 1.60 1.51 1.44 1.37 1.36 1.32 1.28 1.21 1.15 1.08 1.04 1.05 1.05 1.06 1.10
1.59 1.94 2.29 2.64 3.30 3.93 4.46 4.84 5.09 5.13 4.87 4.33 3.73 3.22 2.91 2.67 2.44 2.24 2.11 1.95 1.84 1.72 1.55 1.39 1.30 1.31 1.35 1.36 1.35 1.30 1.19 1.16 1.17 1.19 1.14 1.08 1.07 1.05 1.01 0.99 0.99 0.98 1.00

GEFSSE_prec_meanprecacc_174.txt.gz
Total_Precipitation_Accumulation
0.19 0.10 0.09 0.09 0.07 0.07 0.07 0.09 0.12 0.14 0.15 0.16 0.18 0.18 0.19 0.17 0.16 0.15 0.14 0.13 0.15 0.20 0.24 0.31 0.33 0.39 0.44 0.43 0.32 0.21 0.17 0.15 0.11 0.10 0.12 0.15 0.18 0.21 0.26 0.22 0.23 0.19 0.15
0.12 0.07 0.09 0.09 0.09 0.09 0.08 0.08 0.11 0.12 0.13 0.13 0.13 0.13 0.14 0.15 0.15 0.15 0.15 0.17 0.20 0.24 0.24 0.25 0.29 0.33 0.34 0.29 0.22 0.16 0.12 0.11 0.13 0.18 0.24 0.30 0.37 0.37 0.42 0.35 0.33 0.30 0.15
0.11 0.08 0.07 0.09 0.10 0.10 0.10 0.09 0.10 0.12 0.16 0.17 0.16 0.14 0.12 0.11 0.11 0.12 0.14 0.18 0.24 0.29 0.28 0.25 0.24 0.24 0.25 0.20 0.14 0.11 0.11 0.15 0.21 0.30 0.51 0.61 0.61 0.56 0.54 0.46 0.42 0.30 0.16
0.12 0.11 0.08 0.09 0.10 0.12 0.12 0.14 0.14 0.16 0.18 0.21 0.21 0.19 0.16 0.13 0.12 0.14 0.15 0.17 0.23 0.27 0.25 0.21 0.18 0.17 0.15 0.11 0.10 0.10 0.15 0.22 0.30 0.45 0.79 0.74 0.66 0.59 0.51 0.49 0.49 0.43 0.33
0.16 0.12 0.09 0.08 0.11 0.14 0.16 0.18 0.21 0.21 0.24 0.26 0.28 0.28 0.22 0.15 0.14 0.17 0.20 0.20 0.22 0.26 0.28 0.23 0.17 0.13 0.10 0.10 0.10 0.11 0.15 0.24 0.41 0.67 1.03 1.13 1.07 0.87 0.60 0.50 0.50 0.50 0.49
0.21 0.20 0.16 0.16 0.16 0.19 0.19 0.21 0.26 0.28 0.30 0.34 0.36 0.34 0.26 0.19 0.18 0.21 0.25 0.27 0.27 0.30 0.35 0.30 0.27 0.19 0.14 0.12 0.12 0.15 0.22 0.38 0.50 0.79 1.11 1.34 1.22 1.02 0.71 0.54 0.46 0.53 0.54
0.32 0.31 0.26 0.22 0.19 0.21 0.20 0.20 0.24 0.28 0.32 0.38 0.42 0.37 0.30 0.24 0.22 0.24 0.30 0.31 0.34 0.36 0.35 0.31 0.27 0.20 0.19 0.19 0.20 0.26 0.37 0.54 0.62 0.89 1.14 1.13 1.12 0.98 0.79 0.69 0.55 0.45 0.46
0.37 0.33 0.26 0.21 0.19 0.26 0.31 0.28 0.27 0.29 0.33 0.40 0.45 0.41 0.33 0.28 0.29 0.34 0.35 0.38 0.41 0.37 0.32 0.30 0.27 0.22 0.24 0.29 0.33 0.37 0.46 0.54 0.53 0.77 0.99 1.08 0.93 0.84 0.87 0.80 0.68 0.53 0.44
0.46 0.40 0.33 0.31 0.26 0.26 0.27 0.27 0.30 0.30 0.33 0.38 0.43 0.46 0.39 0.33 0.40 0.46 0.45 0.46 0.48 0.43 0.37 0.35 0.34 0.29 0.33 0.38 0.37 0.37 0.43 0.47 0.45 0.69 0.89 1.17 0.86 0.89 0.97 0.80 0.67 0.59 0.50
0.96 0.95 0.68 0.56 0.45 0.35 0.29 0.29 0.31 0.32 0.34 0.37 0.38 0.39 0.39 0.39 0.43 0.47 0.44 0.45 0.45 0.39 0.34 0.34 0.36 0.34 0.30 0.28 0.26 0.28 0.34 0.31 0.33 0.52 0.94 1.02 0.89 1.03 1.12 0.94 0.76 0.67 0.62
1.49 1.56 1.21 0.82 0.66 0.65 0.51 0.37 0.37 0.34 0.36 0.36 0.35 0.38 0.44 0.59 0.70 0.71 0.52 0.52 0.47 0.41 0.38 0.38 0.35 0.31 0.25 0.24 0.28 0.32 0.32 0.27 0.44 0.64 0.84 0.95 1.04 1.26 1.31 1.13 0.93 0.82 0.73
1.81 1.73 1.56 1.10 1.12 1.25 0.94 0.74 0.62 0.52 0.51 0.48 0.57 0.54 0.67 0.99 1.10 0.86 0.82 0.66 0.59 0.54 0.49 0.48 0.47 0.40 0.33 0.34 0.39 0.39 0.32 0.35 0.62 0.76 0.88 1.13 1.28 1.43 1.42 1.20 1.02 0.91 0.85
1.99 1.60 1.32 1.22 1.14 1.28 1.24 1.12 1.00 0.94 1.00 1.00 0.98 0.93 1.09 1.15 1.01 0.88 1.04 0.92 0.85 0.76 0.76 0.80 0.66 0.54 0.55 0.63 0.65 0.56 0.52 0.57 0.71 0.77 0.93 1.25 1.43 1.57 1.61 1.41 1.18 1.05 1.02
1.82 1.62 1.51 1.50 1.39 1.38 1.60 1.60 1.51 1.47 1.38 1.24 1.23 1.17 1.36 1.48 1.42 1.45 1.48 1.41 1.47 1.42 1.33 1.17 1.00 0.85 0.75 0.72 0.70 0.74 0.81 0.80 0.89 1.00 1.25 1.40 1.46 1.52 1.58 1.52 1.43 1.33 1.23
1.98 1.77 1.65 1.70 1.67 1.60 1.84 1.99 1.82 1.79 1.61 1.45 1.41 1.43 1.52 1.59 1.65 1.79 1.78 1.88 1.83 1.71 1.51 1.35 1.14 1.13 1.04 0.93 0.87 0.84 0.94 1.08 1.18 1.34 1.39 1.49 1.46 1.44 1.57 1.69 1.68 1.62 1.48
2.28 2.02 1.76 1.75 1.66 1.63 1.74 1.88 1.88 1.82 1.86 1.82 1.75 1.68 1.68 1.80 1.98 2.02 2.04 2.00 1.88 1.71 1.65 1.61 1.46 1.43 1.35 1.26 1.11 1.11 1.13 1.16 1.28 1.40 1.51 1.63 1.40 1.30 1.48 1.70 1.80 1.82 1.82
2.49 2.40 2.11 1.98 1.92 1.88 1.81 1.80 1.78 1.85 2.07 2.03 2.07 2.10 1.94 1.87 1.97 2.05 2.16 2.10 1.99 1.89 1.84 1.75 1.74 1.69 1.58 1.49 1.43 1.38 1.36 1.33 1.30 1.35 1.55 1.73 1.67 1.56 1.56 1.64 1.72 1.80 1.91
2.97 2.84 2.29 1.93 2.07 2.15 2.19 2.15 2.22 2.26 2.39 2.32 2.16 2.24 2.18 2.17 2.09 2.09 2.10 2.00 1.92 1.86 2.02 2.08 2.04 1.99 1.86 1.77 1.73 1.58 1.55 1.55 1.46 1.43 1.50 1.59 1.82 1.85 1.76 1.62 1.60 1.70 1.85
3.52 3.24 2.56 2.23 2.28 2.38 2.46 2.64 2.84 2.92 2.90 2.80 2.63 2.58 2.46 2.51 2.45 2.41 2.46 2.35 2.21 2.25 2.28 2.13 2.17 2.21 2.22 2.10 1.83 1.70 1.58 1.58 1.55 1.46 1.49 1.48 1.64 1.85 1.85 1.76 1.66 1.64 1.76
3.61 3.43 2.92 2.63 2.74 2.71 2.70 2.91 3.06 3.13 3.13 3.17 3.19 3.14 2.94 2.83 2.84 2.91 2.98 2.91 2.70 2.66 2.68 2.69 2.60 2.36 2.20 2.09 1.87 1.83 1.73 1.59 1.53 1.46 1.40 1.41 1.46 1.45 1.58 1.60 1.67 1.64 1.63
2.92 2.90 2.94 2.92 2.96 3.01 2.98 3.04 3.27 3.46 3.48 3.43 3.53 3.58 3.43 3.34 3.37 3.48 3.48 3.42 3.18 2.99 2.88 2.82 2.71 2.51 2.27 2.06 2.03 1.97 1.79 1.62 1.57 1.50 1.42 1.38 1.30 1.26 1.36 1.49 1.43 1.35 1.38
2.66 2.80 2.90 2.84 3.05 3.29 3.59 3.98 4.30 4.52 4.47 4.31 4.22 4.13 3.98 3.86 3.78 3.70 3.69 3.52 3.29 3.15 2.94 2.75 2.66 2.54 2.36 2.20 2.14 2.19 1.94 1.77 1.53 1.38 1.39 1.32 1.24 1.21 1.19 1.19 1.25 1.26 1.24
2.31 2.58 2.74 2.94 3.35 3.79 4.26 4.94 5.40 5.31 4.98 4.83 4.56 4.44 4.19 3.90 3.83 3.84 3.62 3.43 3.23 3.04 2.89 2.69 2.61 2.55 2.36 2.25 2.18 2.25 2.09 1.89 1.67 1.53 1.37 1.26 1.23 1.22 1.20 1.16 1.18 1.26 1.26
2.09 2.47 2.77 3.13 3.65 4.25 4.69 5.14 5.45 5.48 5.28 5.05 4.60 4.22 3.82 3.47 3.29 3.21 3.14 2.95 2.83 2.71 2.57 2.42 2.39 2.34 2.23 2.08 1.99 1.84 1.73 1.66 1.64 1.53 1.38 1.25 1.23 1.24 1.22 1.16 1.16 1.20 1.25
1.90 2.33 2.69 3.02 3.60 4.16 4.66 5.00 5.20 5.31 5.21 4.88 4.26 3.67 3.30 3.00 2.78 2.58 2.40 2.32 2.30 2.22 2.03 1.87 1.83 1.80 1.75 1.69 1.67 1.57 1.49 1.42 1.42 1.38 1.33 1.26 1.20 1.13 1.09 1.09 1.09 1.09 1.14
1.68 2.04 2.36 2.68 3.34 3.98 4.51 4.88 5.12 5.16 4.90 4.35 3.76 3.25 2.94 2.68 2.45 2.25 2.12 1.96 1.85 1.73 1.57 1.42 1.34 1.34 1.39 1.41 1.40 1.36 1.25 1.21 1.22 1.25 1.20 1.14 1.11 1.08 1.04 1.02 1.02 1.02 1.04

GEFSSE_prec_meanprecacc_180.txt.gz
Total_Precipitation_Accumulation
0.22 0.12 0.10 0.10 0.07 0.08 0.08 0.10 0.13 0.16 0.16 0.17 0.19 0.19 0.19 0.18 0.16 0.15 0.14 0.14 0.15 0.20 0.25 0.31 0.34 0.39 0.44 0.43 0.32 0.21 0.17 0.15 0.11 0.11 0.12 0.15 0.18 0.21 0.27 0.23 0.25 0.25 0.19
0.15 0.09 0.10 0.10 0.09 0.10 0.09 0.10 0.12 0.13 0.14 0.14 0.14 0.14 0.15 0.16 0.15 0.16 0.15 0.17 0.20 0.25 0.24 0.25 0.29 0.33 0.34 0.29 0.22 0.16 0.12 0.11 0.13 0.18 0.24 0.30 0.37 0.37 0.43 0.36 0.36 0.38 0.20
0.14 0.10 0.08 0.10 0.10 0.11 0.11 0.11 0.11 0.13 0.16 0.17 0.16 0.14 0.13 0.12 0.12 0.13 0.14 0.18 0.25 0.29 0.28 0.25 0.24 0.25 0.25 0.20 0.15 0.11 0.12 0.15 0.21 0.31 0.53 0.64 0.62 0.58 0.55 0.47 0.43 0.32 0.19
0.15 0.14 0.10 0.10 0.12 0.13 0.14 0.16 0.17 0.18 0.19 0.22 0.22 0.20 0.16 0.13 0.13 0.14 0.15 0.18 0.24 0.28 0.25 0.21 0.18 0.17 0.15 0.11 0.10 0.11 0.15 0.22 0.31 0.46 0.83 0.77 0.68 0.65 0.54 0.49 0.49 0.44 0.34
0.19 0.16 0.11 0.09 0.12 0.16 0.19 0.21 0.23 0.23 0.26 0.27 0.29 0.29 0.23 0.16 0.14 0.18 0.20 0.21 0.22 0.27 0.28 0.23 0.17 0.13 0.10 0.10 0.11 0.11 0.15 0.24 0.41 0.69 1.06 1.16 1.09 0.91 0.62 0.51 0.50 0.51 0.49
0.25 0.25 0.19 0.18 0.18 0.21 0.21 0.23 0.28 0.29 0.32 0.36 0.38 0.35 0.28 0.21 0.19 0.22 0.26 0.28 0.28 0.31 0.36 0.31 0.27 0.19 0.14 0.12 0.13 0.15 0.22 0.38 0.50 0.80 1.13 1.37 1.26 1.08 0.75 0.56 0.47 0.54 0.56
0.37 0.36 0.30 0.26 0.22 0.23 0.22 0.22 0.26 0.30 0.33 0.40 0.44 0.39 0.32 0.25 0.23 0.25 0.31 0.32 0.35 0.37 0.37 0.33 0.28 0.22 0.20 0.20 0.21 0.26 0.37 0.54 0.63 0.90 1.16 1.18 1.19 1.06 0.84 0.72 0.57 0.48 0.49
0.40 0.37 0.30 0.27 0.24 0.29 0.33 0.30 0.29 0.31 0.36 0.43 0.48 0.44 0.35 0.29 0.31 0.36 0.37 0.40 0.43 0.39 0.34 0.32 0.28 0.24 0.26 0.31 0.34 0.38 0.47 0.54 0.53 0.78 1.01 1.13 0.98 0.88 0.91 0.84 0.71 0.56 0.47
0.48 0.45 0.41 0.41 0.37 0.36 0.35 0.32 0.34 0.33 0.36 0.42 0.46 0.49 0.42 0.36 0.43 0.49 0.48 0.48 0.51 0.44 0.38 0.36 0.36 0.31 0.34 0.40 0.39 0.39 0.44 0.48 0.46 0.69 0.91 1.22 0.91 0.92 1.01 0.85 0.72 0.63 0.54
0.99 1.03 0.82 0.76 0.66 0.49 0.38 0.35 0.36 0.36 0.38 0.41 0.42 0.43 0.42 0.42 0.46 0.50 0.46 0.48 0.47 0.40 0.36 0.36 0.37 0.35 0.32 0.31 0.29 0.31 0.36 0.33 0.34 0.54 0.98 1.07 0.95 1.09 1.17 0.99 0.81 0.72 0.67
1.51 1.60 1.27 0.91 0.75 0.74 0.58 0.44 0.45 0.39 0.41 0.41 0.40 0.42 0.49 0.66 0.78 0.77 0.57 0.55 0.50 0.43 0.40 0.40 0.37 0.32 0.27 0.27 0.32 0.37 0.35 0.28 0.46 0.70 0.93 1.08 1.15 1.34 1.37 1.18 0.99 0.88 0.79
1.82 1.75 1.59 1.15 1.18 1.31 1.00 0.80 0.69 0.59 0.57 0.53 0.63 0.61 0.75 1.10 1.18 0.93 0.90 0.72 0.63 0.57 0.52 0.50 0.49 0.42 0.35 0.39 0.50 0.47 0.35 0.38 0.66 0.84 1.00 1.26 1.43 1.55 1.48 1.26 1.09 0.99 0.92
2.01 1.62 1.35 1.25 1.16 1.31 1.29 1.17 1.06 1.01 1.09 1.08 1.07 1.03 1.21 1.30 1.12 0.97 1.15 1.02 0.92 0.81 0.83 0.87 0.71 0.58 0.60 0.69 0.75 0.65 0.57 0.63 0.78 0.85 1.07 1.38 1.54 1.65 1.68 1.47 1.25 1.13 1.09
1.86 1.65 1.54 1.53 1.42 1.42 1.65 1.66 1.57 1.54 1.45 1.33 1.33 1.27 1.48 1.61 1.54 1.56 1.60 1.51 1.56 1.51 1.44 1.28 1.08 0.90 0.81 0.77 0.74 0.78 0.84 0.84 0.93 1.05 1.34 1.47 1.51 1.58 1.63 1.58 1.50 1.40 1.32
2.03 1.81 1.69 1.74 1.72 1.65 1.91 2.07 1.90 1.88 1.70 1.55 1.52 1.53 1.63 1.70 1.77 1.92 1.91 1.99 1.92 1.79 1.60 1.45 1.21 1.19 1.10 0.98 0.90 0.86 0.96 1.11 1.21 1.40 1.46 1.54 1.51 1.48 1.61 1.73 1.73 1.70 1.59
2.32 2.05 1.79 1.78 1.71 1.69 1.82 1.99 2.00 1.92 1.96 1.93 1.86 1.79 1.78 1.91 2.09 2.13 2.14 2.10 1.97 1.79 1.74 1.70 1.54 1.50 1.41 1.32 1.16 1.15 1.16 1.20 1.34 1.48 1.57 1.70 1.45 1.34 1.52 1.75 1.86 1.89 1.90
2.54 2.45 2.16 2.02 1.97 1.94 1.88 1.88 1.87 1.94 2.14 2.11 2.15 2.18 2.01 1.94 2.05 2.14 2.24 2.18 2.07 1.97 1.94 1.84 1.83 1.77 1.64 1.54 1.49 1.45 1.42 1.37 1.34 1.41 1.61 1.79 1.74 1.63 1.63 1.70 1.79 1.86 1.97
3.02 2.89 2.35 1.98 2.12 2.21 2.25 2.22 2.29 2.33 2.46 2.38 2.22 2.30 2.24 2.23 2.15 2.16 2.16 2.07 1.99 1.94 2.10 2.18 2.13 2.08 1.94 1.84 1.80 1.64 1.61 1.60 1.49 1.47 1.55 1.65 1.89 1.95 1.89 1.72 1.68 1.76 1.90
3.56 3.29 2.60 2.28 2.34 2.44 2.52 2.69 2.90 2.98 2.96 2.86 2.68 2.64 2.51 2.54 2.49 2.45 2.50 2.40 2.28 2.32 2.35 2.20 2.25 2.31 2.32 2.18 1.89 1.76 1.64 1.64 1.59 1.51 1.54 1.54 1.71 1.92 1.95 1.85 1.77 1.74 1.87
3.67 3.48 2.97 2.68 2.79 2.76 2.74 2.95 3.11 3.17 3.18 3.22 3.24 3.20 2.99 2.87 2.88 2.96 3.02 2.95 2.75 2.71 2.73 2.75 2.68 2.45 2.28 2.16 1.92 1.89 1.79 1.64 1.58 1.51 1.47 1.49 1.54 1.52 1.64 1.66 1.75 1.73 1.75
2.98 2.96 3.00 2.97 3.00 3.05 3.02 3.07 3.31 3.50 3.53 3.48 3.57 3.61 3.46 3.36 3.40 3.52 3.53 3.48 3.24 3.05 2.93 2.87 2.78 2.59 2.33 2.13 2.11 2.04 1.84 1.65 1.61 1.54 1.48 1.46 1.36 1.32 1.43 1.56 1.52 1.47 1.51
2.74 2.87 2.96 2.90 3.09 3.32 3.63 4.02 4.34 4.57 4.53 4.37 4.28 4.20 4.04 3.92 3.84 3.77 3.76 3.57 3.34 3.20 2.99 2.80 2.72 2.60 2.41 2.25 2.21 2.27 2.02 1.83 1.59 1.43 1.45 1.39 1.31 1.26 1.23 1.24 1.32 1.36 1.34
2.38 2.63 2.79 3.00 3.40 3.83 4.30 4.98 5.44 5.35 5.03 4.88 4.62 4.51 4.27 3.97 3.88 3.87 3.65 3.46 3.26 3.08 2.94 2.75 2.66 2.60 2.41 2.30 2.23 2.33 2.17 1.97 1.75 1.60 1.44 1.32 1.29 1.28 1.25 1.20 1.21 1.31 1.32
2.14 2.54 2.85 3.21 3.72 4.32 4.75 5.19 5.50 5.53 5.32 5.10 4.67 4.31 3.92 3.55 3.32 3.23 3.16 2.97 2.86 2.74 2.62 2.47 2.44 2.40 2.29 2.13 2.07 1.92 1.83 1.76 1.72 1.61 1.46 1.32 1.29 1.30 1.26 1.19 1.19 1.24 1.31
1.96 2.41 2.77 3.11 3.69 4.24 4.75 5.09 5.28 5.38 5.28 4.96 4.33 3.75 3.37 3.05 2.81 2.59 2.41 2.33 2.32 2.25 2.07 1.90 1.87 1.86 1.81 1.76 1.75 1.65 1.57 1.52 1.51 1.47 1.44 1.36 1.28 1.19 1.13 1.12 1.12 1.13 1.18
1.76 2.17 2.47 2.77 3.46 4.11 4.67 5.05 5.26 5.27 5.00 4.43 3.82 3.30 2.97 2.72 2.49 2.28 2.14 1.98 1.88 1.76 1.61 1.45 1.37 1.39 1.45 1.48 1.49 1.45 1.33 1.30 1.31 1.35 1.30 1.25 1.20 1.15 1.08 1.05 1.05 1.05 1.07

GEFSSE_prec_meanprecacc_186.txt.gz
Total_Precipitation_Accumulation
0.27 0.15 0.16 0.13 0.08 0.08 0.08 0.10 0.14 0.16 0.17 0.18 0.19 0.19 0.20 0.18 0.16 0.15 0.15 0.14 0.15 0.20 0.25 0.31 0.34 0.39 0.44 0.43 0.32 0.21 0.17 0.15 0.12 0.11 0.13 0.17 0.20 0.23 0.29 0.26 0.28 0.26 0.21
0.18 0.12 0.14 0.12 0.10 0.10 0.09 0.10 0.12 0.14 0.15 0.15 0.14 0.14 0.15 0.16 0.15 0.16 0.16 0.17 0.21 0.25 0.25 0.26 0.29 0.33 0.34 0.29 0.23 0.16 0.12 0.12 0.14 0.19 0.24 0.32 0.40 0.40 0.46 0.40 0.40 0.40 0.23
0.17 0.13 0.10 0.11 0.11 0.11 0.11 0.11 0.12 0.14 0.17 0.18 0.17 0.15 0.13 0.12 0.12 0.13 0.14 0.18 0.25 0.30 0.28 0.25 0.24 0.25 0.25 0.20 0.15 0.12 0.12 0.16 0.22 0.33 0.55 0.66 0.65 0.63 0.60 0.53 0.48 0.36 0.22
0.17 0.17 0.11 0.10 0.12 0.13 0.14 0.16 0.17 0.18 0.19 0.22 0.22 0.20 0.17 0.13 0.13 0.15 0.15 0.18 0.24 0.28 0.25 0.21 0.19 0.17 0.15 0.12 0.10 0.11 0.15 0.24 0.34 0.51 0.87 0.82 0.73 0.71 0.60 0.54 0.53 0.47 0.37
0.20 0.17 0.12 0.10 0.12 0.16 0.19 0.21 0.24 0.24 0.26 0.28 0.30 0.30 0.24 0.17 0.15 0.18 0.20 0.21 0.23 0.27 0.28 0.24 0.17 0.13 0.10 0.10 0.11 0.12 0.16 0.26 0.45 0.76 1.14 1.26 1.19 1.00 0.70 0.57 0.55 0.55 0.52
0.26 0.26 0.20 0.19 0.18 0.21 0.21 0.23 0.28 0.30 0.33 0.37 0.40 0.37 0.29 0.22 0.20 0.23 0.27 0.28 0.29 0.32 0.36 0.31 0.27 0.19 0.14 0.12 0.13 0.16 0.23 0.39 0.53 0.85 1.20 1.47 1.38 1.20 0.87 0.66 0.53 0.59 0.60
0.38 0.37 0.31 0.26 0.22 0.23 0.22 0.22 0.27 0.31 0.34 0.41 0.45 0.40 0.34 0.27 0.24 0.26 0.32 0.33 0.36 0.38 0.37 0.33 0.29 0.22 0.20 0.20 0.21 0.26 0.38 0.55 0.65 0.93 1.22 1.28 1.31 1.20 1.00 0.86 0.65 0.54 0.54
0.42 0.38 0.31 0.28 0.24 0.29 0.33 0.30 0.30 0.32 0.37 0.44 0.49 0.45 0.37 0.31 0.32 0.37 0.38 0.41 0.44 0.40 0.35 0.33 0.29 0.25 0.27 0.31 0.34 0.39 0.48 0.56 0.55 0.80 1.06 1.19 1.07 1.03 1.09 1.03 0.82 0.64 0.54
0.49 0.46 0.41 0.41 0.38 0.36 0.35 0.33 0.35 0.34 0.37 0.43 0.48 0.52 0.44 0.37 0.44 0.50 0.49 0.50 0.52 0.46 0.40 0.38 0.37 0.32 0.35 0.41 0.40 0.40 0.45 0.50 0.48 0.71 0.94 1.28 1.04 1.11 1.20 1.01 0.84 0.73 0.62
1.00 1.04 0.83 0.77 0.66 0.50 0.39 0.36 0.38 0.38 0.41 0.44 0.45 0.46 0.44 0.44 0.48 0.52 0.49 0.50 0.50 0.44 0.39 0.39 0.40 0.36 0.33 0.32 0.30 0.33 0.38 0.35 0.36 0.58 1.04 1.14 1.13 1.32 1.35 1.13 0.94 0.82 0.76
1.52 1.61 1.28 0.92 0.76 0.75 0.60 0.46 0.48 0.42 0.43 0.44 0.43 0.45 0.51 0.68 0.80 0.80 0.60 0.59 0.55 0.50 0.46 0.45 0.40 0.34 0.29 0.28 0.34 0.40 0.39 0.31 0.50 0.75 1.01 1.18 1.29 1.54 1.56 1.32 1.10 0.97 0.87
1.84 1.76 1.60 1.15 1.19 1.32 1.01 0.82 0.73 0.61 0.59 0.57 0.67 0.64 0.78 1.15 1.25 0.98 0.95 0.79 0.73 0.64 0.58 0.55 0.53 0.45 0.37 0.40 0.51 0.50 0.38 0.41 0.70 0.91 1.09 1.37 1.57 1.72 1.63 1.39 1.21 1.09 1.01
2.02 1.64 1.37 1.27 1.18 1.33 1.31 1.18 1.07 1.02 1.11 1.11 1.12 1.10 1.28 1.39 1.22 1.02 1.18 1.05 0.96 0.85 0.87 0.91 0.74 0.60 0.62 0.71 0.77 0.68 0.61 0.68 0.86 0.96 1.19 1.51 1.67 1.80 1.81 1.58 1.36 1.23 1.19
1.87 1.67 1.56 1.55 1.45 1.47 1.68 1.67 1.58 1.55 1.47 1.35 1.35 1.29 1.52 1.66 1.60 1.60 1.63 1.54 1.59 1.53 1.47 1.31 1.11 0.94 0.85 0.82 0.80 0.83 0.89 0.89 1.01 1.15 1.45 1.60 1.63 1.66 1.73 1.68 1.60 1.49 1.40
2.06 1.83 1.71 1.76 1.76 1.70 1.95 2.09 1.93 1.90 1.73 1.58 1.55 1.57 1.68 1.75 1.82 1.97 1.95 2.04 1.97 1.85 1.65 1.49 1.27 1.24 1.14 1.03 0.96 0.92 1.02 1.16 1.27 1.44 1.51 1.62 1.58 1.55 1.70 1.82 1.82 1.78 1.65
2.35 2.07 1.81 1.81 1.74 1.72 1.86 2.02 2.03 1.96 2.01 1.98 1.89 1.83 1.83 1.95 2.13 2.16 2.18 2.14 2.01 1.84 1.79 1.74 1.59 1.56 1.47 1.38 1.21 1.20 1.21 1.24 1.38 1.51 1.61 1.74 1.50 1.40 1.60 1.84 1.95 1.98 1.97
2.58 2.49 2.20 2.07 2.01 1.99 1.95 1.92 1.90 1.98 2.19 2.15 2.19 2.21 2.03 1.97 2.07 2.16 2.29 2.24 2.12 2.01 1.97 1.87 1.87 1.83 1.70 1.60 1.55 1.51 1.46 1.41 1.38 1.45 1.65 1.82 1.77 1.69 1.71 1.78 1.86 1.93 2.03
3.08 2.95 2.40 2.02 2.16 2.26 2.31 2.27 2.34 2.38 2.50 2.42 2.25 2.34 2.27 2.27 2.20 2.22 2.24 2.14 2.06 2.00 2.14 2.22 2.18 2.13 2.00 1.91 1.87 1.71 1.67 1.64 1.53 1.52 1.59 1.69 1.93 2.02 1.98 1.80 1.74 1.81 1.95
3.67 3.37 2.67 2.35 2.39 2.49 2.57 2.74 2.94 3.03 3.01 2.89 2.71 2.68 2.54 2.60 2.56 2.54 2.59 2.49 2.35 2.38 2.39 2.23 2.28 2.34 2.36 2.24 1.95 1.82 1.69 1.70 1.65 1.57 1.60 1.59 1.76 1.98 2.02 1.92 1.83 1.80 1.92
3.78 3.58 3.05 2.77 2.88 2.82 2.78 2.99 3.15 3.22 3.21 3.25 3.27 3.23 3.03 2.93 2.96 3.04 3.10 3.01 2.80 2.75 2.76 2.77 2.70 2.47 2.30 2.20 1.96 1.93 1.83 1.71 1.66 1.57 1.50 1.53 1.59 1.56 1.68 1.71 1.80 1.78 1.80
3.09 3.07 3.12 3.07 3.10 3.11 3.05 3.10 3.33 3.52 3.56 3.51 3.61 3.65 3.49 3.40 3.43 3.56 3.58 3.53 3.29 3.10 2.96 2.88 2.80 2.60 2.34 2.15 2.14 2.07 1.87 1.69 1.66 1.58 1.50 1.50 1.41 1.36 1.47 1.61 1.58 1.52 1.55
2.88 2.98 3.07 3.01 3.17 3.38 3.67 4.06 4.37 4.60 4.56 4.41 4.33 4.23 4.07 3.94 3.87 3.80 3.79 3.62 3.37 3.23 3.02 2.82 2.75 2.62 2.42 2.27 2.23 2.29 2.04 1.86 1.62 1.46 1.49 1.44 1.35 1.30 1.28 1.28 1.36 1.39 1.38
2.51 2.75 2.89 3.10 3.51 3.90 4.36 5.04 5.49 5.40 5.08 4.92 4.66 4.54 4.30 4.02 3.94 3.93 3.69 3.49 3.28 3.09 2.96 2.77 2.68 2.62 2.43 2.31 2.26 2.36 2.20 2.00 1.78 1.63 1.47 1.36 1.34 1.34 1.30 1.24 1.26 1.36 1.38
2.25 2.62 2.93 3.30 3.82 4.40 4.83 5.27 5.56 5.58 5.37 5.15 4.73 4.37 3.99 3.63 3.43 3.30 3.19 2.99 2.87 2.75 2.62 2.48 2.46 2.42 2.31 2.16 2.10 1.97 1.87 1.78 1.74 1.63 1.50 1.36 1.33 1.34 1.30 1.23 1.23 1.29 1.36
2.08 2.50 2.86 3.20 3.77 4.33 4.84 5.19 5.36 5.46 5.35 5.03 4.41 3.83 3.45 3.13 2.88 2.64 2.45 2.35 2.33 2.25 2.07 1.91 1.88 1.87 1.83 1.79 1.78 1.69 1.61 1.56 1.55 1.50 1.47 1.41 1.33 1.24 1.17 1.15 1.14 1.16 1.21
1.87 2.32 2.63 2.90 3.54 4.20 4.77 5.17 5.38 5.40 5.13 4.55 3.94 3.40 3.08 2.82 2.57 2.35 2.19 2.01 1.90 1.78 1.62 1.46 1.38 1.40 1.46 1.50 1.51 1.49 1.39 1.34 1.34 1.38 1.33 1.28 1.23 1.17 1.11 1.07 1.07 1.07 1.10

GEFSSE_prec_meanprecacc_192.txt.gz
Total_Precipitation_Accumulation
0.30 0.19 0.21 0.17 0.10 0.09 0.09 0.12 0.16 0.17 0.17 0.18 0.20 0.20 0.20 0.19 0.17 0.16 0.15 0.15 0.16 0.21 0.25 0.31 0.34 0.40 0.45 0.43 0.32 0.22 0.18 0.16 0.13 0.13 0.14 0.18 0.23 0.26 0.33 0.29 0.31 0.29 0.25
0.20 0.16 0.21 0.16 0.12 0.11 0.11 0.12 0.14 0.14 0.15 0.15 0.14 0.14 0.15 0.16 0.16 0.17 0.16 0.18 0.21 0.26 0.25 0.26 0.30 0.33 0.35 0.30 0.23 0.16 0.13 0.13 0.15 0.21 0.27 0.34 0.44 0.45 0.52 0.46 0.45 0.45 0.28
0.18 0.19 0.18 0.16 0.13 0.12 0.12 0.12 0.13 0.14 0.17 0.18 0.17 0.15 0.13 0.13 0.13 0.13 0.15 0.19 0.26 0.30 0.29 0.26 0.25 0.25 0.26 0.21 0.16 0.13 0.13 0.18 0.25 0.36 0.59 0.68 0.68 0.68 0.66 0.58 0.53 0.41 0.27
0.19 0.23 0.17 0.15 0.14 0.14 0.15 0.17 0.18 0.19 0.20 0.23 0.22 0.20 0.17 0.14 0.13 0.15 0.16 0.19 0.25 0.29 0.27 0.23 0.20 0.19 0.17 0.13 0.12 0.12 0.17 0.27 0.38 0.55 0.91 0.84 0.75 0.76 0.65 0.59 0.58 0.52 0.41
0.24 0.21 0.17 0.12 0.13 0.17 0.19 0.22 0.24 0.24 0.27 0.28 0.31 0.30 0.25 0.18 0.16 0.19 0.22 0.22 0.25 0.30 0.31 0.26 0.19 0.14 0.12 0.12 0.13 0.14 0.18 0.28 0.50 0.81 1.17 1.28 1.21 1.03 0.75 0.62 0.61 0.60 0.57
0.30 0.29 0.22 0.20 0.19 0.22 0.22 0.24 0.29 0.31 0.33 0.38 0.40 0.37 0.30 0.23 0.21 0.24 0.28 0.30 0.31 0.35 0.39 0.33 0.29 0.20 0.16 0.14 0.15 0.18 0.25 0.41 0.56 0.87 1.22 1.49 1.41 1.24 0.94 0.75 0.63 0.66 0.65
0.40 0.39 0.33 0.28 0.25 0.25 0.23 0.23 0.27 0.31 0.34 0.41 0.46 0.41 0.34 0.27 0.25 0.28 0.35 0.36 0.39 0.41 0.40 0.35 0.31 0.24 0.22 0.21 0.22 0.28 0.40 0.58 0.67 0.94 1.23 1.29 1.34 1.25 1.07 0.96 0.76 0.62 0.61
0.43 0.40 0.33 0.30 0.27 0.32 0.35 0.31 0.30 0.33 0.37 0.44 0.49 0.46 0.38 0.32 0.34 0.40 0.41 0.45 0.47 0.43 0.38 0.35 0.32 0.28 0.29 0.33 0.35 0.40 0.50 0.58 0.57 0.81 1.07 1.21 1.09 1.06 1.15 1.13 0.92 0.73 0.61
0.50 0.47 0.43 0.44 0.40 0.38 0.36 0.33 0.35 0.34 0.38 0.43 0.49 0.52 0.46 0.39 0.47 0.53 0.52 0.54 0.56 0.49 0.42 0.40 0.39 0.34 0.37 0.43 0.41 0.42 0.48 0.53 0.50 0.73 0.96 1.29 1.06 1.15 1.28 1.10 0.93 0.82 0.71
1.01 1.05 0.84 0.78 0.67 0.51 0.41 0.38 0.39 0.39 0.41 0.46 0.46 0.48 0.47 0.46 0.50 0.54 0.51 0.53 0.52 0.46 0.42 0.42 0.42 0.38 0.34 0.34 0.33 0.36 0.41 0.37 0.38 0.59 1.05 1.15 1.15 1.37 1.45 1.23 1.04 0.91 0.84
1.53 1.62 1.28 0.93 0.77 0.76 0.61 0.48 0.52 0.45 0.45 0.46 0.45 0.48 0.54 0.70 0.82 0.82 0.62 0.61 0.58 0.53 0.50 0.48 0.43 0.37 0.32 0.31 0.38 0.45 0.43 0.33 0.51 0.76 1.02 1.20 1.32 1.60 1.67 1.43 1.20 1.06 0.95
1.85 1.78 1.61 1.17 1.20 1.33 1.02 0.84 0.75 0.63 0.61 0.58 0.68 0.66 0.79 1.15 1.25 1.00 0.97 0.82 0.77 0.69 0.63 0.61 0.59 0.51 0.42 0.43 0.54 0.53 0.41 0.43 0.72 0.93 1.11 1.39 1.61 1.79 1.72 1.48 1.30 1.19 1.12
2.04 1.66 1.39 1.28 1.20 1.34 1.32 1.19 1.08 1.04 1.12 1.13 1.14 1.12 1.30 1.40 1.23 1.03 1.19 1.07 0.98 0.88 0.90 0.95 0.79 0.65 0.67 0.75 0.80 0.71 0.64 0.71 0.88 0.99 1.22 1.54 1.72 1.87 1.90 1.67 1.45 1.34 1.31
1.90 1.70 1.58 1.56 1.46 1.48 1.69 1.68 1.59 1.56 1.48 1.37 1.37 1.32 1.54 1.69 1.61 1.61 1.64 1.56 1.61 1.56 1.50 1.34 1.16 0.99 0.90 0.87 0.84 0.87 0.93 0.94 1.05 1.18 1.48 1.64 1.68 1.73 1.82 1.79 1.70 1.60 1.50
2.10 1.87 1.74 1.79 1.78 1.72 1.97 2.10 1.94 1.91 1.74 1.59 1.56 1.60 1.71 1.78 1.84 2.00 2.00 2.07 1.99 1.88 1.68 1.53 1.31 1.29 1.19 1.08 1.02 0.98 1.07 1.21 1.31 1.48 1.55 1.66 1.63 1.60 1.77 1.92 1.93 1.88 1.75
2.44 2.13 1.88 1.87 1.78 1.75 1.89 2.04 2.06 1.98 2.03 1.99 1.92 1.86 1.86 1.98 2.16 2.20 2.22 2.18 2.05 1.87 1.83 1.79 1.64 1.61 1.51 1.41 1.27 1.26 1.27 1.29 1.43 1.54 1.63 1.77 1.53 1.44 1.67 1.93 2.06 2.09 2.08
2.64 2.55 2.27 2.14 2.08 2.08 2.04 2.00 1.97 2.03 2.24 2.19 2.23 2.25 2.08 2.01 2.10 2.19 2.32 2.27 2.15 2.05 2.01 1.91 1.90 1.86 1.73 1.64 1.60 1.57 1.52 1.47 1.43 1.48 1.67 1.84 1.79 1.72 1.77 1.84 1.95 2.05 2.15
3.12 3.00 2.48 2.13 2.25 2.37 2.45 2.41 2.44 2.44 2.56 2.48 2.31 2.39 2.33 2.32 2.25 2.27 2.27 2.18 2.10 2.04 2.19 2.25 2.21 2.16 2.03 1.94 1.91 1.75 1.70 1.69 1.57 1.55 1.62 1.71 1.95 2.04 2.01 1.86 1.82 1.91 2.07
3.73 3.44 2.74 2.43 2.48 2.59 2.65 2.82 3.01 3.08 3.05 2.93 2.76 2.73 2.61 2.67 2.62 2.60 2.65 2.55 2.41 2.43 2.43 2.26 2.31 2.37 2.39 2.26 1.97 1.84 1.71 1.72 1.68 1.60 1.63 1.61 1.78 2.00 2.04 1.96 1.89 1.88 2.01
3.91 3.70 3.15 2.88 2.99 2.93 2.88 3.07 3.23 3.28 3.27 3.31 3.33 3.30 3.11 3.00 3.03 3.11 3.16 3.08 2.87 2.81 2.80 2.81 2.73 2.49 2.33 2.22 1.98 1.95 1.85 1.73 1.69 1.60 1.53 1.56 1.61 1.58 1.69 1.73 1.83 1.82 1.85
3.18 3.16 3.22 3.19 3.23 3.26 3.18 3.21 3.43 3.61 3.65 3.59 3.68 3.72 3.57 3.47 3.49 3.63 3.64 3.60 3.36 3.16 3.00 2.92 2.83 2.62 2.36 2.16 2.15 2.08 1.89 1.70 1.68 1.60 1.53 1.53 1.42 1.38 1.49 1.63 1.61 1.56 1.59
2.95 3.06 3.17 3.11 3.30 3.53 3.83 4.21 4.51 4.71 4.66 4.49 4.42 4.31 4.14 4.02 3.93 3.86 3.86 3.68 3.43 3.27 3.06 2.87 2.78 2.64 2.43 2.29 2.25 2.31 2.06 1.88 1.64 1.48 1.51 1.46 1.37 1.32 1.30 1.30 1.39 1.41 1.40
2.59 2.81 2.96 3.20 3.63 4.03 4.52 5.22 5.63 5.51 5.17 5.00 4.73 4.62 4.39 4.11 4.01 3.99 3.74 3.54 3.33 3.13 3.00 2.81 2.71 2.64 2.44 2.33 2.28 2.39 2.22 2.02 1.79 1.65 1.49 1.38 1.36 1.36 1.31 1.25 1.27 1.37 1.39
2.30 2.68 3.00 3.40 3.95 4.53 4.97 5.42 5.71 5.70 5.47 5.24 4.82 4.44 4.06 3.71 3.48 3.35 3.24 3.03 2.91 2.78 2.65 2.50 2.47 2.42 2.32 2.16 2.12 1.99 1.91 1.81 1.76 1.65 1.52 1.38 1.34 1.35 1.31 1.24 1.24 1.30 1.36
2.15 2.56 2.93 3.32 3.94 4.48 4.97 5.31 5.53 5.59 5.46 5.13 4.51 3.91 3.52 3.20 2.94 2.69 2.48 2.38 2.36 2.28 2.10 1.93 1.89 1.87 1.84 1.79 1.79 1.71 1.65 1.60 1.58 1.52 1.49 1.43 1.36 1.26 1.18 1.16 1.15 1.18 1.23
1.93 2.41 2.74 3.05 3.70 4.35 4.90 5.27 5.51 5.53 5.25 4.66 4.03 3.49 3.15 2.89 2.62 2.38 2.22 2.05 1.95 1.83 1.68 1.51 1.40 1.41 1.47 1.50 1.52 1.50 1.41 1.38 1.38 1.40 1.36 1.31 1.26 1.21 1.14 1.09 1.08 1.08 1.11

GEFSSE_prec_meanprecacc_198.txt.gz
Total_Precipitation_Accumulation
0.32 0.20 0.24 0.23 0.15 0.12 0.12 0.14 0.18 0.19 0.18 0.19 0.20 0.20 0.21 0.19 0.17 0.16 0.16 0.16 0.17 0.22 0.26 0.32 0.35 0.41 0.46 0.44 0.33 0.22 0.18 0.16 0.13 0.13 0.15 0.19 0.24 0.27 0.34 0.30 0.32 0.31 0.28
0.23 0.18 0.23 0.20 0.17 0.15 0.12 0.13 0.15 0.15 0.16 0.16 0.15 0.15 0.16 0.17 0.17 0.17 0.18 0.19 0.23 0.27 0.26 0.27 0.30 0.34 0.35 0.31 0.24 0.17 0.13 0.13 0.16 0.21 0.27 0.34 0.44 0.46 0.53 0.47 0.47 0.48 0.31
0.19 0.20 0.21 0.18 0.17 0.16 0.14 0.14 0.14 0.15 0.18 0.19 0.18 0.16 0.14 0.13 0.13 0.14 0.15 0.20 0.27 0.31 0.30 0.27 0.25 0.26 0.26 0.22 0.17 0.14 0.14 0.19 0.25 0.37 0.59 0.68 0.69 0.68 0.67 0.60 0.55 0.43 0.30
0.21 0.25 0.20 0.20 0.20 0.19 0.17 0.19 0.20 0.20 0.20 0.23 0.23 0.21 0.18 0.15 0.14 0.16 0.18 0.21 0.28 0.32 0.29 0.24 0.21 0.20 0.18 0.14 0.13 0.13 0.18 0.28 0.39 0.56 0.92 0.85 0.76 0.76 0.67 0.60 0.59 0.54 0.44
0.27 0.25 0.20 0.17 0.20 0.23 0.24 0.25 0.26 0.25 0.27 0.29 0.32 0.32 0.26 0.19 0.17 0.21 0.23 0.24 0.28 0.33 0.34 0.28 0.21 0.16 0.13 0.13 0.14 0.14 0.19 0.30 0.52 0.82 1.18 1.29 1.22 1.04 0.77 0.64 0.64 0.62 0.60
0.33 0.34 0.26 0.24 0.26 0.31 0.31 0.30 0.31 0.32 0.34 0.38 0.41 0.38 0.31 0.24 0.22 0.26 0.30 0.32 0.34 0.37 0.41 0.35 0.31 0.22 0.17 0.15 0.16 0.19 0.28 0.45 0.59 0.89 1.23 1.50 1.42 1.26 0.96 0.77 0.67 0.71 0.70
0.42 0.44 0.38 0.33 0.31 0.33 0.33 0.33 0.33 0.33 0.35 0.42 0.46 0.41 0.34 0.28 0.26 0.29 0.36 0.38 0.42 0.45 0.44 0.39 0.34 0.27 0.25 0.23 0.24 0.30 0.42 0.61 0.70 0.96 1.25 1.31 1.35 1.27 1.10 0.99 0.79 0.65 0.64
0.45 0.43 0.37 0.34 0.31 0.36 0.40 0.35 0.34 0.36 0.39 0.47 0.51 0.46 0.38 0.32 0.35 0.41 0.44 0.48 0.52 0.48 0.42 0.40 0.36 0.32 0.33 0.35 0.37 0.43 0.52 0.61 0.58 0.83 1.08 1.22 1.10 1.07 1.19 1.17 0.96 0.76 0.65
0.53 0.50 0.48 0.49 0.44 0.42 0.42 0.39 0.40 0.40 0.44 0.49 0.52 0.56 0.48 0.41 0.48 0.55 0.56 0.57 0.60 0.53 0.46 0.44 0.43 0.38 0.41 0.47 0.45 0.45 0.51 0.56 0.52 0.75 0.96 1.30 1.08 1.17 1.33 1.18 0.98 0.87 0.76
1.03 1.08 0.88 0.82 0.72 0.56 0.45 0.44 0.45 0.45 0.49 0.55 0.53 0.52 0.51 0.49 0.53 0.56 0.54 0.55 0.54 0.48 0.44 0.45 0.46 0.41 0.39 0.39 0.38 0.41 0.46 0.42 0.40 0.61 1.07 1.17 1.17 1.41 1.51 1.32 1.12 0.99 0.91
1.55 1.64 1.31 0.96 0.80 0.80 0.65 0.52 0.56 0.50 0.50 0.52 0.51 0.51 0.57 0.72 0.84 0.84 0.64 0.62 0.59 0.54 0.52 0.52 0.47 0.40 0.36 0.36 0.44 0.51 0.49 0.38 0.54 0.79 1.05 1.22 1.35 1.66 1.75 1.54 1.30 1.16 1.04
1.87 1.80 1.64 1.20 1.23 1.35 1.04 0.86 0.78 0.67 0.64 0.61 0.71 0.68 0.82 1.18 1.28 1.02 0.99 0.84 0.79 0.72 0.68 0.67 0.66 0.56 0.47 0.49 0.61 0.61 0.48 0.49 0.77 0.98 1.16 1.43 1.67 1.87 1.81 1.57 1.39 1.28 1.21
2.06 1.67 1.40 1.30 1.22 1.36 1.33 1.21 1.11 1.06 1.14 1.15 1.17 1.16 1.33 1.42 1.26 1.06 1.22 1.10 1.03 0.93 0.96 1.01 0.86 0.73 0.74 0.82 0.87 0.78 0.71 0.78 0.95 1.07 1.28 1.60 1.78 1.94 1.97 1.75 1.53 1.43 1.41
1.92 1.72 1.59 1.58 1.48 1.50 1.71 1.71 1.61 1.59 1.51 1.40 1.41 1.36 1.59 1.72 1.64 1.64 1.69 1.60 1.66 1.61 1.55 1.39 1.21 1.05 0.98 0.93 0.90 0.94 1.00 1.02 1.11 1.23 1.51 1.67 1.72 1.78 1.88 1.87 1.79 1.69 1.59
2.13 1.89 1.76 1.83 1.82 1.75 2.01 2.14 1.97 1.94 1.77 1.64 1.61 1.64 1.74 1.80 1.87 2.03 2.04 2.13 2.04 1.92 1.72 1.57 1.35 1.34 1.24 1.12 1.06 1.03 1.14 1.28 1.37 1.52 1.59 1.69 1.65 1.64 1.82 2.00 2.03 2.00 1.86
2.46 2.16 1.91 1.91 1.82 1.80 1.93 2.08 2.10 2.02 2.06 2.02 1.95 1.89 1.90 2.02 2.20 2.24 2.27 2.23 2.09 1.92 1.88 1.83 1.67 1.65 1.55 1.45 1.30 1.30 1.31 1.35 1.49 1.59 1.68 1.81 1.56 1.47 1.70 1.97 2.14 2.19 2.21
2.67 2.59 2.30 2.18 2.12 2.12 2.07 2.04 2.01 2.07 2.26 2.22 2.26 2.29 2.13 2.06 2.16 2.25 2.37 2.32 2.20 2.10 2.05 1.95 1.94 1.89 1.76 1.68 1.63 1.60 1.56 1.51 1.49 1.54 1.72 1.87 1.82 1.74 1.79 1.88 2.01 2.13 2.24
3.14 3.03 2.52 2.16 2.30 2.41 2.50 2.48 2.50 2.48 2.60 2.53 2.35 2.47 2.40 2.40 2.33 2.34 2.33 2.23 2.15 2.09 2.23 2.29 2.24 2.20 2.07 1.98 1.93 1.78 1.74 1.73 1.61 1.60 1.67 1.75 1.98 2.06 2.04 1.88 1.85 1.96 2.13
3.76 3.47 2.78 2.48 2.53 2.65 2.70 2.86 3.05 3.11 3.08 2.97 2.81 2.81 2.69 2.74 2.69 2.65 2.71 2.61 2.46 2.48 2.48 2.29 2.34 2.41 2.44 2.30 1.99 1.86 1.74 1.76 1.71 1.64 1.67 1.66 1.83 2.04 2.08 1.98 1.92 1.91 2.05
3.94 3.73 3.20 2.93 3.07 3.00 2.94 3.13 3.28 3.32 3.30 3.35 3.38 3.37 3.17 3.06 3.10 3.17 3.22 3.12 2.91 2.85 2.85 2.85 2.78 2.55 2.38 2.27 2.02 1.99 1.88 1.75 1.72 1.63 1.56 1.60 1.65 1.62 1.72 1.76 1.87 1.85 1.88
3.21 3.20 3.26 3.24 3.29 3.34 3.27 3.30 3.50 3.67 3.71 3.65 3.74 3.79 3.64 3.54 3.58 3.72 3.72 3.66 3.41 3.21 3.05 2.98 2.90 2.69 2.43 2.23 2.21 2.13 1.92 1.72 1.70 1.63 1.57 1.57 1.46 1.42 1.52 1.66 1.64 1.60 1.64
2.98 3.10 3.21 3.16 3.35 3.59 3.92 4.33 4.63 4.81 4.74 4.59 4.53 4.43 4.25 4.12 4.05 4.00 3.99 3.79 3.51 3.34 3.11 2.92 2.83 2.69 2.48 2.34 2.29 2.35 2.10 1.92 1.67 1.51 1.54 1.50 1.42 1.37 1.34 1.33 1.41 1.44 1.43
2.61 2.84 3.00 3.24 3.68 4.12 4.64 5.36 5.76 5.61 5.26 5.08 4.81 4.70 4.49 4.22 4.12 4.07 3.83 3.63 3.40 3.19 3.04 2.85 2.76 2.68 2.47 2.36 2.32 2.44 2.27 2.06 1.83 1.68 1.52 1.41 1.40 1.41 1.36 1.29 1.29 1.39 1.41
2.33 2.71 3.03 3.43 4.00 4.59 5.06 5.56 5.84 5.80 5.56 5.31 4.88 4.51 4.15 3.80 3.57 3.43 3.32 3.10 2.98 2.84 2.71 2.54 2.51 2.46 2.35 2.18 2.13 2.02 1.93 1.84 1.80 1.68 1.54 1.40 1.37 1.40 1.36 1.28 1.27 1.32 1.39
2.17 2.58 2.97 3.36 3.97 4.52 5.03 5.41 5.65 5.70 5.55 5.21 4.57 3.97 3.59 3.26 2.99 2.73 2.52 2.41 2.39 2.31 2.13 1.97 1.93 1.91 1.87 1.82 1.81 1.73 1.67 1.62 1.61 1.55 1.52 1.45 1.39 1.30 1.23 1.21 1.18 1.20 1.25
1.94 2.42 2.77 3.07 3.73 4.40 4.96 5.34 5.59 5.61 5.31 4.72 4.09 3.55 3.20 2.94 2.67 2.41 2.24 2.06 1.97 1.85 1.70 1.54 1.45 1.44 1.50 1.53 1.54 1.52 1.43 1.40 1.40 1.44 1.40 1.34 1.30 1.24 1.19 1.15 1.12 1.12 1.14

GEFSSE_prec_meanprecacc_204.txt.gz
Total_Precipitation_Accumulation
0.33 0.21 0.25 0.24 0.17 0.14 0.15 0.19 0.23 0.21 0.19 0.19 0.20 0.21 0.21 0.20 0.18 0.17 0.16 0.16 0.18 0.23 0.27 0.34 0.37 0.42 0.47 0.46 0.34 0.23 0.18 0.16 0.14 0.13 0.15 0.19 0.24 0.28 0.34 0.30 0.34 0.35 0.35
0.23 0.18 0.24 0.21 0.19 0.18 0.17 0.19 0.17 0.17 0.17 0.16 0.15 0.15 0.16 0.17 0.17 0.18 0.18 0.20 0.23 0.27 0.27 0.28 0.31 0.35 0.36 0.31 0.25 0.18 0.14 0.14 0.16 0.22 0.27 0.34 0.45 0.47 0.54 0.48 0.49 0.54 0.36
0.20 0.22 0.22 0.20 0.20 0.20 0.18 0.18 0.15 0.17 0.19 0.20 0.18 0.16 0.15 0.14 0.14 0.15 0.16 0.20 0.28 0.32 0.31 0.27 0.26 0.27 0.27 0.23 0.18 0.15 0.16 0.20 0.26 0.37 0.61 0.70 0.70 0.71 0.70 0.61 0.56 0.45 0.32
0.22 0.27 0.21 0.21 0.23 0.24 0.21 0.22 0.22 0.23 0.22 0.25 0.25 0.23 0.19 0.16 0.15 0.17 0.18 0.22 0.28 0.33 0.30 0.25 0.23 0.21 0.19 0.15 0.13 0.14 0.20 0.31 0.41 0.58 0.94 0.89 0.79 0.83 0.72 0.63 0.61 0.55 0.46
0.28 0.27 0.22 0.18 0.23 0.30 0.29 0.29 0.30 0.29 0.31 0.32 0.34 0.34 0.29 0.21 0.18 0.21 0.24 0.25 0.28 0.33 0.35 0.29 0.23 0.18 0.15 0.14 0.15 0.16 0.21 0.33 0.54 0.84 1.21 1.32 1.26 1.11 0.81 0.67 0.66 0.64 0.62
0.33 0.36 0.28 0.26 0.29 0.39 0.36 0.35 0.37 0.37 0.39 0.43 0.44 0.41 0.33 0.25 0.23 0.26 0.31 0.33 0.35 0.38 0.42 0.37 0.33 0.24 0.19 0.18 0.18 0.21 0.29 0.46 0.60 0.92 1.27 1.53 1.46 1.33 1.01 0.82 0.70 0.73 0.73
0.43 0.46 0.40 0.34 0.35 0.44 0.40 0.38 0.38 0.38 0.39 0.48 0.50 0.45 0.38 0.30 0.27 0.30 0.38 0.40 0.44 0.47 0.46 0.41 0.36 0.30 0.28 0.26 0.27 0.33 0.44 0.63 0.71 1.00 1.28 1.35 1.41 1.36 1.17 1.06 0.84 0.69 0.68
0.47 0.45 0.39 0.37 0.36 0.45 0.47 0.41 0.41 0.41 0.43 0.53 0.56 0.51 0.43 0.36 0.38 0.44 0.47 0.51 0.56 0.51 0.45 0.42 0.39 0.35 0.35 0.38 0.39 0.45 0.54 0.62 0.60 0.85 1.13 1.27 1.15 1.16 1.29 1.25 1.01 0.81 0.69
0.54 0.53 0.51 0.54 0.51 0.48 0.48 0.46 0.51 0.47 0.51 0.57 0.56 0.60 0.53 0.46 0.54 0.61 0.61 0.62 0.64 0.56 0.47 0.45 0.45 0.39 0.43 0.49 0.47 0.48 0.53 0.57 0.53 0.76 0.98 1.33 1.12 1.22 1.40 1.25 1.05 0.94 0.82
1.05 1.11 0.93 0.90 0.80 0.61 0.50 0.49 0.51 0.50 0.56 0.61 0.60 0.57 0.58 0.57 0.60 0.63 0.59 0.60 0.58 0.50 0.46 0.46 0.48 0.43 0.40 0.41 0.41 0.44 0.49 0.44 0.42 0.63 1.10 1.20 1.20 1.45 1.58 1.39 1.18 1.06 0.97
1.58 1.68 1.37 1.02 0.87 0.87 0.72 0.57 0.61 0.55 0.54 0.55 0.59 0.60 0.66 0.86 0.96 0.94 0.70 0.68 0.64 0.58 0.56 0.55 0.50 0.43 0.38 0.38 0.46 0.54 0.51 0.39 0.56 0.82 1.08 1.25 1.39 1.70 1.83 1.60 1.36 1.22 1.09
1.91 1.86 1.69 1.27 1.29 1.42 1.11 0.95 0.86 0.73 0.69 0.65 0.76 0.78 0.89 1.32 1.41 1.14 1.07 0.89 0.83 0.76 0.71 0.70 0.69 0.59 0.49 0.51 0.65 0.65 0.50 0.51 0.80 1.02 1.20 1.49 1.73 1.92 1.86 1.63 1.44 1.35 1.28
2.09 1.71 1.44 1.36 1.30 1.44 1.42 1.32 1.21 1.15 1.23 1.21 1.23 1.21 1.41 1.51 1.36 1.17 1.30 1.16 1.07 0.97 1.00 1.07 0.92 0.76 0.77 0.85 0.91 0.82 0.73 0.80 0.98 1.10 1.32 1.64 1.83 1.98 2.02 1.80 1.58 1.49 1.48
1.95 1.76 1.62 1.62 1.54 1.57 1.80 1.81 1.71 1.67 1.60 1.49 1.51 1.43 1.67 1.82 1.72 1.72 1.76 1.67 1.74 1.69 1.63 1.48 1.29 1.10 1.03 0.97 0.94 0.96 1.03 1.05 1.16 1.27 1.55 1.70 1.75 1.81 1.91 1.91 1.84 1.74 1.66
2.16 1.92 1.80 1.88 1.86 1.82 2.09 2.22 2.05 2.04 1.87 1.72 1.70 1.71 1.81 1.88 1.95 2.11 2.12 2.22 2.14 2.01 1.82 1.66 1.43 1.41 1.31 1.17 1.09 1.06 1.18 1.31 1.39 1.54 1.62 1.72 1.68 1.67 1.84 2.02 2.08 2.05 1.91
2.49 2.19 1.95 1.96 1.86 1.84 1.98 2.14 2.16 2.09 2.12 2.07 1.98 1.93 1.95 2.07 2.26 2.31 2.36 2.34 2.18 1.99 1.97 1.93 1.77 1.74 1.63 1.51 1.35 1.36 1.37 1.39 1.52 1.62 1.72 1.86 1.60 1.50 1.73 2.00 2.17 2.23 2.25
2.72 2.63 2.34 2.22 2.16 2.16 2.11 2.08 2.06 2.11 2.31 2.26 2.29 2.33 2.18 2.12 2.25 2.34 2.46 2.42 2.31 2.21 2.16 2.05 2.04 2.01 1.88 1.78 1.71 1.66 1.62 1.55 1.52 1.58 1.77 1.92 1.86 1.77 1.82 1.91 2.04 2.17 2.29
3.22 3.11 2.57 2.21 2.35 2.46 2.55 2.53 2.55 2.50 2.63 2.56 2.40 2.53 2.46 2.46 2.41 2.42 2.40 2.30 2.23 2.18 2.32 2.39 2.34 2.29 2.17 2.09 2.05 1.85 1.78 1.77 1.66 1.65 1.72 1.80 2.04 2.12 2.09 1.92 1.89 2.00 2.17
3.86 3.58 2.86 2.54 2.58 2.71 2.76 2.91 3.09 3.15 3.12 3.01 2.85 2.85 2.72 2.78 2.73 2.70 2.75 2.66 2.52 2.55 2.54 2.37 2.43 2.50 2.53 2.40 2.09 1.94 1.81 1.83 1.78 1.68 1.71 1.71 1.89 2.11 2.15 2.05 1.97 1.96 2.08
4.01 3.82 3.28 2.99 3.12 3.06 2.99 3.18 3.32 3.36 3.35 3.39 3.41 3.39 3.21 3.11 3.14 3.24 3.27 3.18 2.97 2.92 2.92 2.93 2.86 2.63 2.47 2.37 2.12 2.08 1.96 1.81 1.77 1.68 1.60 1.64 1.69 1.67 1.79 1.84 1.94 1.91 1.93
3.26 3.25 3.32 3.28 3.33 3.38 3.32 3.36 3.57 3.73 3.76 3.70 3.78 3.83 3.69 3.58 3.63 3.78 3.78 3.72 3.48 3.28 3.13 3.05 2.97 2.76 2.50 2.30 2.29 2.20 1.98 1.78 1.77 1.70 1.60 1.59 1.49 1.46 1.59 1.76 1.74 1.69 1.71
3.02 3.14 3.25 3.19 3.39 3.64 3.99 4.42 4.71 4.88 4.81 4.66 4.59 4.49 4.32 4.17 4.10 4.05 4.06 3.85 3.59 3.43 3.20 2.99 2.90 2.75 2.53 2.39 2.35 2.41 2.16 1.97 1.72 1.54 1.57 1.53 1.45 1.41 1.39 1.40 1.49 1.52 1.51
2.66 2.89 3.04 3.28 3.73 4.17 4.71 5.45 5.84 5.68 5.33 5.16 4.88 4.78 4.57 4.29 4.17 4.13 3.89 3.68 3.47 3.26 3.12 2.92 2.82 2.74 2.53 2.40 2.37 2.51 2.34 2.13 1.90 1.74 1.57 1.46 1.45 1.45 1.41 1.35 1.33 1.43 1.46
2.36 2.74 3.06 3.47 4.04 4.64 5.12 5.62 5.92 5.87 5.63 5.39 4.97 4.60 4.23 3.89 3.66 3.49 3.36 3.14 3.02 2.88 2.76 2.59 2.55 2.51 2.40 2.23 2.18 2.08 2.01 1.94 1.89 1.76 1.61 1.45 1.42 1.44 1.41 1.33 1.32 1.36 1.41
2.20 2.62 3.00 3.39 4.01 4.57 5.08 5.45 5.69 5.76 5.64 5.29 4.66 4.07 3.69 3.36 3.09 2.80 2.57 2.44 2.42 2.34 2.17 2.00 1.97 1.95 1.91 1.86 1.85 1.77 1.72 1.69 1.68 1.63 1.59 1.51 1.44 1.35 1.29 1.27 1.25 1.26 1.29
1.98 2.46 2.80 3.11 3.77 4.43 4.99 5.37 5.63 5.65 5.37 4.78 4.17 3.65 3.31 3.04 2.76 2.49 2.30 2.11 2.00 1.89 1.75 1.59 1.49 1.49 1.54 1.57 1.58 1.56 1.47 1.44 1.45 1.49 1.45 1.39 1.35 1.30 1.24 1.21 1.18 1.18 1.21

GEFSSE_prec_meanprecacc_210.txt.gz
Total_Precipitation_Accumulation
0.35 0.22 0.27 0.26 0.18 0.15 0.16 0.20 0.24 0.22 0.20 0.20 0.21 0.21 0.21 0.20 0.18 0.17 0.16 0.16 0.18 0.24 0.29 0.35 0.38 0.43 0.48 0.47 0.35 0.23 0.18 0.17 0.15 0.15 0.18 0.24 0.28 0.30 0.36 0.33 0.36 0.39 0.40
0.25 0.20 0.25 0.22 0.20 0.19 0.18 0.20 0.18 0.18 0.18 0.17 0.16 0.16 0.17 0.17 0.17 0.18 0.18 0.20 0.23 0.28 0.27 0.29 0.33 0.36 0.38 0.33 0.26 0.18 0.15 0.14 0.16 0.22 0.28 0.37 0.48 0.51 0.58 0.51 0.51 0.56 0.40
0.22 0.23 0.22 0.21 0.22 0.22 0.19 0.19 0.16 0.17 0.20 0.20 0.18 0.16 0.15 0.14 0.14 0.15 0.16 0.21 0.28 0.33 0.32 0.28 0.27 0.28 0.28 0.24 0.19 0.15 0.16 0.20 0.27 0.38 0.61 0.71 0.71 0.75 0.76 0.66 0.60 0.48 0.35
0.23 0.27 0.23 0.24 0.27 0.26 0.22 0.23 0.22 0.23 0.23 0.25 0.26 0.23 0.20 0.16 0.16 0.17 0.18 0.22 0.29 0.33 0.30 0.26 0.24 0.22 0.20 0.16 0.15 0.15 0.21 0.32 0.42 0.60 0.97 0.93 0.81 0.88 0.79 0.70 0.65 0.58 0.49
0.28 0.28 0.25 0.21 0.27 0.32 0.31 0.32 0.32 0.30 0.32 0.33 0.36 0.35 0.29 0.22 0.19 0.21 0.24 0.25 0.29 0.34 0.36 0.30 0.24 0.19 0.16 0.16 0.16 0.17 0.23 0.34 0.56 0.87 1.24 1.38 1.33 1.19 0.89 0.75 0.71 0.67 0.65
0.34 0.37 0.30 0.29 0.32 0.43 0.41 0.38 0.40 0.39 0.39 0.44 0.45 0.43 0.36 0.27 0.25 0.28 0.32 0.34 0.36 0.40 0.44 0.38 0.34 0.26 0.21 0.19 0.19 0.22 0.30 0.49 0.62 0.94 1.30 1.59 1.52 1.40 1.08 0.88 0.74 0.77 0.76
0.44 0.47 0.41 0.38 0.39 0.49 0.47 0.44 0.41 0.42 0.42 0.50 0.52 0.48 0.42 0.34 0.31 0.33 0.39 0.42 0.47 0.50 0.48 0.43 0.38 0.33 0.30 0.28 0.30 0.35 0.46 0.65 0.74 1.03 1.32 1.40 1.46 1.43 1.26 1.13 0.90 0.74 0.72
0.47 0.46 0.40 0.40 0.41 0.53 0.56 0.49 0.45 0.45 0.48 0.57 0.60 0.55 0.45 0.40 0.41 0.47 0.49 0.53 0.58 0.54 0.47 0.44 0.42 0.38 0.38 0.40 0.41 0.48 0.56 0.64 0.61 0.86 1.17 1.33 1.23 1.27 1.40 1.34 1.08 0.86 0.73
0.55 0.54 0.52 0.55 0.54 0.55 0.54 0.51 0.56 0.52 0.57 0.66 0.63 0.64 0.55 0.48 0.57 0.64 0.63 0.64 0.66 0.58 0.49 0.47 0.47 0.41 0.44 0.50 0.49 0.51 0.56 0.59 0.56 0.78 1.01 1.40 1.20 1.32 1.50 1.33 1.12 0.99 0.86
1.07 1.12 0.95 0.91 0.82 0.64 0.55 0.55 0.58 0.58 0.66 0.77 0.70 0.63 0.61 0.60 0.62 0.66 0.63 0.63 0.61 0.53 0.48 0.50 0.51 0.45 0.43 0.44 0.42 0.46 0.52 0.46 0.43 0.64 1.12 1.24 1.28 1.55 1.67 1.47 1.25 1.11 1.03
1.61 1.70 1.39 1.04 0.89 0.89 0.76 0.63 0.68 0.64 0.66 0.72 0.72 0.68 0.71 0.89 0.98 0.95 0.72 0.72 0.67 0.61 0.58 0.58 0.54 0.47 0.41 0.40 0.48 0.57 0.54 0.41 0.58 0.83 1.10 1.29 1.46 1.78 1.90 1.68 1.44 1.30 1.16
1.95 1.89 1.72 1.30 1.32 1.43 1.13 0.99 0.93 0.85 0.81 0.78 0.87 0.87 0.95 1.35 1.43 1.16 1.09 0.94 0.90 0.81 0.74 0.74 0.73 0.62 0.52 0.52 0.67 0.69 0.52 0.53 0.82 1.05 1.24 1.55 1.80 2.01 1.96 1.71 1.51 1.42 1.36
2.14 1.76 1.49 1.41 1.35 1.48 1.45 1.36 1.28 1.25 1.32 1.31 1.32 1.28 1.45 1.54 1.40 1.21 1.36 1.21 1.13 1.04 1.05 1.11 0.95 0.79 0.81 0.88 0.93 0.85 0.75 0.82 1.02 1.15 1.37 1.71 1.91 2.09 2.12 1.88 1.64 1.54 1.54
2.02 1.85 1.74 1.71 1.62 1.63 1.85 1.85 1.77 1.76 1.67 1.55 1.56 1.47 1.74 1.89 1.77 1.78 1.81 1.71 1.78 1.76 1.72 1.53 1.33 1.13 1.06 1.01 0.97 0.99 1.06 1.09 1.22 1.37 1.62 1.75 1.80 1.88 1.99 1.98 1.89 1.78 1.70
2.22 2.02 1.94 1.98 1.95 1.89 2.15 2.27 2.11 2.10 1.92 1.76 1.73 1.74 1.85 1.92 1.97 2.15 2.17 2.27 2.18 2.07 1.92 1.76 1.49 1.45 1.34 1.20 1.13 1.09 1.22 1.36 1.46 1.64 1.71 1.78 1.73 1.72 1.90 2.09 2.14 2.10 1.96
2.56 2.28 2.05 2.05 1.96 1.92 2.07 2.24 2.22 2.14 2.16 2.10 2.00 1.95 1.98 2.10 2.29 2.35 2.41 2.39 2.23 2.03 2.02 1.99 1.82 1.78 1.68 1.56 1.39 1.39 1.41 1.44 1.56 1.65 1.76 1.91 1.65 1.55 1.77 2.05 2.23 2.29 2.31
2.81 2.75 2.49 2.32 2.27 2.24 2.17 2.15 2.14 2.17 2.35 2.28 2.31 2.35 2.21 2.16 2.28 2.38 2.50 2.46 2.34 2.24 2.20 2.09 2.08 2.04 1.92 1.82 1.74 1.69 1.65 1.59 1.56 1.61 1.80 1.97 1.90 1.81 1.86 1.95 2.09 2.23 2.35
3.32 3.22 2.72 2.34 2.45 2.55 2.60 2.58 2.62 2.59 2.68 2.59 2.42 2.55 2.49 2.50 2.44 2.45 2.43 2.33 2.27 2.22 2.36 2.43 2.37 2.32 2.20 2.12 2.08 1.89 1.83 1.81 1.68 1.68 1.77 1.87 2.13 2.19 2.14 1.96 1.92 2.03 2.21
3.93 3.68 2.97 2.65 2.67 2.77 2.82 2.97 3.14 3.21 3.18 3.06 2.89 2.89 2.76 2.81 2.76 2.73 2.79 2.70 2.56 2.59 2.58 2.40 2.46 2.55 2.57 2.44 2.14 1.99 1.86 1.88 1.83 1.73 1.75 1.76 1.96 2.20 2.22 2.09 2.01 2.00 2.12
4.09 3.95 3.42 3.11 3.21 3.09 3.03 3.22 3.36 3.40 3.40 3.44 3.46 3.44 3.25 3.14 3.18 3.27 3.31 3.22 3.01 2.97 2.97 2.98 2.91 2.68 2.52 2.41 2.16 2.12 1.99 1.83 1.79 1.72 1.65 1.68 1.74 1.73 1.86 1.89 1.97 1.94 1.96
3.33 3.36 3.49 3.41 3.43 3.44 3.35 3.39 3.59 3.76 3.78 3.73 3.82 3.88 3.73 3.62 3.67 3.82 3.82 3.76 3.53 3.34 3.19 3.11 3.03 2.81 2.55 2.35 2.32 2.22 1.99 1.79 1.78 1.72 1.66 1.66 1.54 1.50 1.65 1.83 1.79 1.72 1.73
3.09 3.21 3.34 3.28 3.48 3.73 4.04 4.45 4.74 4.90 4.83 4.69 4.63 4.52 4.36 4.21 4.15 4.10 4.11 3.91 3.66 3.49 3.26 3.05 2.96 2.80 2.57 2.42 2.37 2.42 2.17 1.98 1.73 1.55 1.60 1.57 1.50 1.48 1.46 1.48 1.58 1.58 1.55
2.70 2.93 3.07 3.32 3.77 4.22 4.76 5.50 5.88 5.72 5.36 5.19 4.92 4.82 4.60 4.33 4.23 4.21 3.97 3.76 3.55 3.35 3.21 2.99 2.86 2.77 2.55 2.42 2.39 2.53 2.35 2.14 1.91 1.75 1.58 1.48 1.47 1.49 1.47 1.44 1.44 1.52 1.52
2.40 2.79 3.11 3.52 4.09 4.68 5.17 5.67 5.95 5.90 5.66 5.42 5.00 4.63 4.27 3.94 3.71 3.57 3.46 3.24 3.11 2.98 2.85 2.66 2.61 2.55 2.43 2.25 2.20 2.10 2.02 1.95 1.90 1.78 1.63 1.47 1.43 1.46 1.43 1.37 1.39 1.47 1.49
2.25 2.70 3.10 3.51 4.10 4.63 5.14 5.50 5.74 5.80 5.68 5.33 4.70 4.11 3.74 3.43 3.17 2.90 2.66 2.56 2.55 2.47 2.28 2.10 2.03 2.00 1.96 1.90 1.88 1.79 1.74 1.70 1.69 1.65 1.61 1.54 1.47 1.38 1.31 1.29 1.28 1.31 1.36
2.02 2.51 2.89 3.21 3.88 4.57 5.10 5.46 5.69 5.70 5.42 4.83 4.22 3.69 3.37 3.10 2.82 2.58 2.39 2.20 2.12 2.02 1.86 1.67 1.55 1.53 1.57 1.60 1.62 1.59 1.49 1.45 1.46 1.50 1.46 1.40 1.37 1.32 1.27 1.23 1.20 1.20 1.24

GEFSSE_prec_meanprecacc_216.txt.gz
Total_Precipitation_Accumulation
0.36 0.23 0.29 0.28 0.20 0.17 0.18 0.23 0.31 0.27 0.23 0.23 0.26 0.26 0.23 0.20 0.18 0.17 0.17 0.16 0.18 0.24 0.30 0.36 0.39 0.44 0.50 0.48 0.36 0.24 0.20 0.18 0.16 0.17 0.20 0.27 0.31 0.33 0.40 0.37 0.42 0.44 0.48
0.25 0.22 0.28 0.25 0.22 0.21 0.20 0.23 0.23 0.20 0.20 0.19 0.19 0.20 0.19 0.18 0.18 0.18 0.19 0.20 0.24 0.29 0.29 0.31 0.34 0.38 0.39 0.34 0.27 0.20 0.16 0.15 0.18 0.24 0.30 0.38 0.52 0.56 0.64 0.57 0.57 0.61 0.46
0.22 0.24 0.25 0.25 0.23 0.23 0.21 0.21 0.19 0.19 0.22 0.22 0.21 0.20 0.18 0.15 0.15 0.15 0.17 0.21 0.29 0.35 0.34 0.30 0.29 0.30 0.31 0.25 0.20 0.17 0.19 0.23 0.30 0.41 0.64 0.73 0.73 0.79 0.83 0.74 0.67 0.55 0.41
0.23 0.28 0.27 0.28 0.30 0.28 0.25 0.25 0.24 0.25 0.25 0.27 0.27 0.26 0.23 0.19 0.16 0.17 0.19 0.23 0.30 0.34 0.32 0.29 0.26 0.25 0.23 0.19 0.17 0.17 0.24 0.35 0.46 0.64 1.00 0.94 0.82 0.91 0.85 0.78 0.73 0.66 0.56
0.28 0.29 0.27 0.24 0.31 0.37 0.36 0.35 0.34 0.32 0.33 0.35 0.38 0.38 0.35 0.27 0.20 0.22 0.25 0.26 0.31 0.36 0.37 0.32 0.26 0.22 0.20 0.20 0.18 0.19 0.25 0.37 0.60 0.91 1.27 1.40 1.35 1.23 0.95 0.81 0.78 0.75 0.73
0.34 0.37 0.31 0.31 0.35 0.48 0.47 0.43 0.43 0.42 0.42 0.46 0.48 0.44 0.41 0.32 0.27 0.29 0.33 0.35 0.37 0.42 0.46 0.40 0.36 0.28 0.24 0.23 0.22 0.24 0.33 0.51 0.64 0.96 1.32 1.60 1.54 1.44 1.14 0.95 0.82 0.85 0.84
0.45 0.48 0.42 0.40 0.41 0.53 0.52 0.49 0.46 0.46 0.45 0.53 0.55 0.49 0.44 0.37 0.33 0.35 0.41 0.42 0.47 0.51 0.50 0.45 0.41 0.36 0.33 0.32 0.33 0.37 0.48 0.68 0.75 1.03 1.33 1.41 1.48 1.46 1.32 1.20 0.99 0.83 0.80
0.49 0.48 0.43 0.43 0.45 0.58 0.62 0.54 0.50 0.49 0.52 0.61 0.62 0.56 0.47 0.42 0.44 0.49 0.51 0.54 0.59 0.55 0.49 0.46 0.45 0.41 0.41 0.42 0.44 0.51 0.58 0.66 0.64 0.88 1.17 1.33 1.24 1.30 1.46 1.41 1.17 0.95 0.82
0.56 0.55 0.54 0.58 0.59 0.61 0.61 0.57 0.62 0.57 0.60 0.69 0.65 0.67 0.57 0.50 0.60 0.67 0.66 0.67 0.69 0.60 0.50 0.49 0.50 0.44 0.47 0.53 0.52 0.54 0.58 0.62 0.58 0.81 1.03 1.41 1.21 1.35 1.58 1.42 1.21 1.08 0.96
1.08 1.13 0.95 0.92 0.85 0.70 0.61 0.62 0.63 0.62 0.69 0.80 0.73 0.65 0.64 0.62 0.65 0.70 0.68 0.68 0.64 0.55 0.50 0.52 0.54 0.49 0.47 0.47 0.46 0.50 0.55 0.49 0.46 0.67 1.14 1.26 1.30 1.60 1.75 1.55 1.34 1.20 1.12
1.62 1.72 1.43 1.06 0.90 0.91 0.80 0.69 0.74 0.69 0.71 0.77 0.76 0.72 0.74 0.93 1.03 1.01 0.78 0.78 0.71 0.65 0.61 0.62 0.58 0.52 0.46 0.44 0.53 0.61 0.58 0.45 0.62 0.86 1.12 1.30 1.48 1.84 1.99 1.76 1.53 1.38 1.25
1.96 1.91 1.76 1.34 1.34 1.46 1.17 1.05 0.98 0.90 0.87 0.85 0.92 0.90 0.98 1.39 1.48 1.21 1.15 1.00 0.96 0.86 0.79 0.78 0.77 0.66 0.56 0.55 0.71 0.73 0.55 0.55 0.84 1.06 1.25 1.56 1.83 2.06 2.02 1.78 1.60 1.53 1.46
2.15 1.77 1.51 1.44 1.41 1.53 1.49 1.41 1.33 1.31 1.38 1.37 1.36 1.31 1.48 1.57 1.43 1.23 1.39 1.26 1.18 1.09 1.09 1.16 1.00 0.83 0.84 0.92 0.95 0.87 0.77 0.83 1.03 1.16 1.39 1.74 1.95 2.13 2.17 1.95 1.72 1.64 1.66
2.03 1.86 1.75 1.73 1.66 1.70 1.94 1.91 1.82 1.82 1.75 1.63 1.61 1.51 1.76 1.91 1.80 1.80 1.83 1.74 1.82 1.81 1.77 1.59 1.38 1.16 1.08 1.03 0.99 1.01 1.08 1.10 1.23 1.38 1.65 1.79 1.84 1.94 2.05 2.06 1.98 1.87 1.80
2.25 2.04 1.97 2.03 1.98 1.93 2.25 2.37 2.18 2.18 2.03 1.86 1.79 1.78 1.88 1.95 2.00 2.17 2.20 2.30 2.21 2.09 1.95 1.82 1.56 1.50 1.37 1.22 1.16 1.12 1.24 1.37 1.47 1.65 1.73 1.81 1.76 1.77 1.97 2.16 2.22 2.21 2.07
2.59 2.32 2.10 2.12 2.03 1.99 2.14 2.32 2.31 2.22 2.25 2.20 2.07 2.00 2.02 2.13 2.31 2.37 2.44 2.41 2.24 2.05 2.04 2.03 1.88 1.83 1.72 1.58 1.41 1.40 1.42 1.45 1.58 1.67 1.77 1.93 1.68 1.58 1.82 2.11 2.31 2.37 2.40
2.86 2.81 2.56 2.42 2.36 2.33 2.24 2.23 2.23 2.25 2.42 2.37 2.39 2.43 2.27 2.20 2.32 2.41 2.52 2.49 2.37 2.27 2.23 2.13 2.12 2.09 1.97 1.86 1.77 1.71 1.67 1.61 1.57 1.63 1.81 1.99 1.92 1.83 1.89 1.99 2.14 2.28 2.42
3.39 3.30 2.82 2.47 2.61 2.66 2.68 2.64 2.69 2.65 2.73 2.67 2.50 2.63 2.55 2.54 2.48 2.48 2.46 2.37 2.32 2.26 2.40 2.47 2.43 2.38 2.25 2.16 2.10 1.91 1.85 1.82 1.70 1.70 1.78 1.88 2.14 2.20 2.16 2.00 1.96 2.07 2.26
4.00 3.77 3.08 2.77 2.86 2.96 2.92 3.05 3.23 3.29 3.25 3.12 2.95 2.95 2.82 2.87 2.80 2.75 2.82 2.74 2.61 2.64 2.63 2.47 2.53 2.61 2.62 2.49 2.17 2.02 1.88 1.90 1.86 1.75 1.78 1.78 1.98 2.22 2.23 2.10 2.03 2.02 2.14
4.14 4.02 3.54 3.27 3.37 3.29 3.18 3.33 3.46 3.48 3.45 3.50 3.51 3.49 3.30 3.19 3.23 3.31 3.36 3.28 3.07 3.03 3.04 3.06 2.98 2.74 2.57 2.46 2.19 2.14 2.01 1.85 1.82 1.74 1.68 1.70 1.76 1.75 1.88 1.91 1.98 1.95 1.98
3.41 3.45 3.61 3.56 3.57 3.57 3.49 3.51 3.70 3.82 3.84 3.79 3.89 3.93 3.79 3.69 3.74 3.91 3.91 3.85 3.60 3.41 3.28 3.20 3.09 2.86 2.59 2.39 2.35 2.24 2.02 1.81 1.79 1.74 1.67 1.67 1.55 1.52 1.66 1.85 1.81 1.73 1.76
3.17 3.30 3.44 3.43 3.63 3.87 4.19 4.62 4.87 4.99 4.91 4.78 4.72 4.61 4.44 4.32 4.27 4.24 4.24 4.02 3.75 3.59 3.36 3.13 3.02 2.85 2.61 2.47 2.41 2.45 2.18 1.99 1.73 1.56 1.60 1.58 1.51 1.49 1.48 1.51 1.61 1.62 1.58
2.78 3.02 3.18 3.43 3.88 4.37 4.95 5.69 6.05 5.84 5.47 5.28 5.00 4.90 4.70 4.45 4.37 4.36 4.11 3.89 3.67 3.45 3.27 3.04 2.94 2.85 2.61 2.47 2.44 2.56 2.37 2.14 1.91 1.75 1.58 1.48 1.47 1.49 1.48 1.45 1.47 1.57 1.56
2.47 2.87 3.20 3.61 4.18 4.81 5.32 5.82 6.11 6.05 5.78 5.51 5.07 4.69 4.33 4.01 3.82 3.69 3.57 3.37 3.24 3.09 2.90 2.71 2.67 2.63 2.52 2.34 2.27 2.14 2.05 1.96 1.91 1.79 1.64 1.47 1.44 1.46 1.43 1.38 1.41 1.50 1.55
2.33 2.77 3.20 3.59 4.18 4.74 5.25 5.64 5.88 5.92 5.78 5.41 4.76 4.17 3.80 3.48 3.23 2.96 2.73 2.64 2.64 2.55 2.34 2.16 2.10 2.08 2.04 1.99 1.96 1.86 1.79 1.73 1.71 1.66 1.62 1.54 1.47 1.38 1.32 1.30 1.29 1.33 1.39
2.14 2.60 2.96 3.28 3.96 4.67 5.20 5.56 5.80 5.81 5.53 4.92 4.28 3.75 3.43 3.16 2.90 2.64 2.46 2.27 2.19 2.08 1.93 1.75 1.64 1.63 1.66 1.68 1.69 1.66 1.55 1.50 1.49 1.53 1.47 1.42 1.38 1.33 1.27 1.23 1.20 1.21 1.26